Wetterdaten: Montag, 13.04.2015
Datum Zeit Temp. Aussen +5cm Feuchte Auss Luftdruck Regen Sonnenschein Regendauer Solar Windben
13.04.2015 00:00 13,3 C 11,7 C 73 % 1023,7 hPa 0,0 l/m 0 min 0 min 0 W/m 29,3 km/h (5 Bft)
13.04.2015 00:02 13,4 C 11,7 C 73 % 1023,6 hPa 0,0 l/m 0 min 0 min 0 W/m 23,0 km/h (4 Bft)
13.04.2015 00:06 13,4 C 11,7 C 73 % 1023,7 hPa 0,0 l/m 0 min 0 min 0 W/m 33,5 km/h (5 Bft)
13.04.2015 00:08 13,4 C 11,7 C 73 % 1023,6 hPa 0,0 l/m 0 min 0 min 0 W/m 33,5 km/h (5 Bft)
13.04.2015 00:10 13,4 C 11,7 C 73 % 1023,5 hPa 0,0 l/m 0 min 0 min 0 W/m 27,2 km/h (4 Bft)
13.04.2015 00:12 13,4 C 11,7 C 73 % 1023,6 hPa 0,0 l/m 0 min 0 min 0 W/m 31,4 km/h (5 Bft)
13.04.2015 00:14 13,4 C 11,7 C 73 % 1023,6 hPa 0,0 l/m 0 min 0 min 0 W/m 29,3 km/h (5 Bft)
13.04.2015 00:16 13,5 C 11,7 C 73 % 1023,6 hPa 0,0 l/m 0 min 0 min 0 W/m 31,4 km/h (5 Bft)
13.04.2015 00:18 13,5 C 11,7 C 73 % 1023,7 hPa 0,0 l/m 0 min 0 min 0 W/m 31,4 km/h (5 Bft)
13.04.2015 00:20 13,5 C 11,7 C 73 % 1023,6 hPa 0,0 l/m 0 min 0 min 0 W/m 29,3 km/h (5 Bft)
13.04.2015 00:22 13,5 C 11,7 C 73 % 1023,7 hPa 0,0 l/m 0 min 0 min 0 W/m 27,2 km/h (4 Bft)
13.04.2015 00:24 13,4 C 11,7 C 73 % 1023,7 hPa 0,0 l/m 0 min 0 min 0 W/m 33,5 km/h (5 Bft)
13.04.2015 00:26 13,4 C 11,7 C 73 % 1023,7 hPa 0,0 l/m 0 min 0 min 0 W/m 39,7 km/h (6 Bft)
13.04.2015 00:28 13,4 C 11,7 C 72 % 1023,7 hPa 0,0 l/m 0 min 0 min 0 W/m 35,6 km/h (5 Bft)
13.04.2015 00:30 13,4 C 11,7 C 72 % 1023,8 hPa 0,0 l/m 0 min 0 min 0 W/m 25,1 km/h (4 Bft)
13.04.2015 00:32 13,4 C 11,7 C 72 % 1023,7 hPa 0,0 l/m 0 min 0 min 0 W/m 29,3 km/h (5 Bft)
13.04.2015 00:34 13,4 C 11,7 C 72 % 1023,8 hPa 0,0 l/m 0 min 0 min 0 W/m 33,5 km/h (5 Bft)
13.04.2015 00:36 13,4 C 11,7 C 72 % 1023,8 hPa 0,0 l/m 0 min 0 min 0 W/m 33,5 km/h (5 Bft)
13.04.2015 00:38 13,4 C 11,7 C 72 % 1023,9 hPa 0,0 l/m 0 min 0 min 0 W/m 25,1 km/h (4 Bft)
13.04.2015 00:40 13,4 C 11,7 C 72 % 1024,0 hPa 0,0 l/m 0 min 0 min 0 W/m 29,3 km/h (5 Bft)
13.04.2015 00:42 13,4 C 11,7 C 71 % 1023,8 hPa 0,0 l/m 0 min 0 min 0 W/m 31,4 km/h (5 Bft)
13.04.2015 00:44 13,4 C 11,7 C 72 % 1023,8 hPa 0,0 l/m 0 min 0 min 0 W/m 27,2 km/h (4 Bft)
13.04.2015 00:46 13,3 C 11,7 C 71 % 1023,9 hPa 0,0 l/m 0 min 0 min 0 W/m 27,2 km/h (4 Bft)
13.04.2015 00:48 13,3 C 11,7 C 71 % 1023,9 hPa 0,0 l/m 0 min 0 min 0 W/m 29,3 km/h (5 Bft)
13.04.2015 00:50 13,3 C 11,7 C 71 % 1023,9 hPa 0,0 l/m 0 min 0 min 0 W/m 29,3 km/h (5 Bft)
13.04.2015 00:52 13,3 C 11,7 C 71 % 1023,9 hPa 0,0 l/m 0 min 0 min 0 W/m 27,2 km/h (4 Bft)
13.04.2015 00:54 13,3 C 11,7 C 71 % 1023,9 hPa 0,0 l/m 0 min 0 min 0 W/m 29,3 km/h (5 Bft)
13.04.2015 00:56 13,3 C 11,7 C 70 % 1023,8 hPa 0,0 l/m 0 min 0 min 0 W/m 37,7 km/h (5 Bft)
13.04.2015 00:58 13,3 C 11,7 C 70 % 1023,8 hPa 0,0 l/m 0 min 0 min 0 W/m 37,7 km/h (5 Bft)
13.04.2015 01:00 13,2 C 11,1 C 69 % 1023,8 hPa 0,0 l/m 0 min 0 min 0 W/m 29,3 km/h (5 Bft)
13.04.2015 01:02 13,2 C 11,1 C 69 % 1023,9 hPa 0,0 l/m 0 min 0 min 0 W/m 27,2 km/h (4 Bft)
13.04.2015 01:04 13,2 C 11,1 C 69 % 1024,0 hPa 0,0 l/m 0 min 0 min 0 W/m 37,7 km/h (5 Bft)
13.04.2015 01:06 13,2 C 11,1 C 69 % 1024,0 hPa 0,0 l/m 0 min 0 min 0 W/m 25,1 km/h (4 Bft)
13.04.2015 01:08 13,2 C 11,1 C 69 % 1024,1 hPa 0,0 l/m 0 min 0 min 0 W/m 20,9 km/h (4 Bft)
13.04.2015 01:10 13,1 C 11,1 C 69 % 1024,0 hPa 0,0 l/m 0 min 0 min 0 W/m 25,1 km/h (4 Bft)
13.04.2015 01:12 13,1 C 10,6 C 69 % 1024,1 hPa 0,0 l/m 0 min 0 min 0 W/m 20,9 km/h (4 Bft)
13.04.2015 01:14 13,0 C 10,6 C 69 % 1024,2 hPa 0,0 l/m 0 min 0 min 0 W/m 29,3 km/h (5 Bft)
13.04.2015 01:16 13,0 C 10,6 C 69 % 1024,1 hPa 0,0 l/m 0 min 0 min 0 W/m 37,7 km/h (5 Bft)
13.04.2015 01:18 12,9 C 10,6 C 69 % 1024,1 hPa 0,0 l/m 0 min 0 min 0 W/m 23,0 km/h (4 Bft)
13.04.2015 01:20 12,9 C 10,6 C 69 % 1024,1 hPa 0,0 l/m 0 min 0 min 0 W/m 27,2 km/h (4 Bft)
13.04.2015 01:22 12,8 C 10,6 C 68 % 1024,1 hPa 0,0 l/m 0 min 0 min 0 W/m 20,9 km/h (4 Bft)
13.04.2015 01:24 12,8 C 10,6 C 68 % 1024,2 hPa 0,0 l/m 0 min 0 min 0 W/m 23,0 km/h (4 Bft)
13.04.2015 01:26 12,8 C 10,6 C 68 % 1024,2 hPa 0,0 l/m 0 min 0 min 0 W/m 25,1 km/h (4 Bft)
13.04.2015 01:28 12,7 C 10,6 C 68 % 1024,3 hPa 0,0 l/m 0 min 0 min 0 W/m 31,4 km/h (5 Bft)
13.04.2015 01:30 12,7 C 10,6 C 68 % 1024,3 hPa 0,0 l/m 0 min 0 min 0 W/m 25,1 km/h (4 Bft)
13.04.2015 01:32 12,7 C 10,6 C 68 % 1024,4 hPa 0,0 l/m 0 min 0 min 0 W/m 25,1 km/h (4 Bft)
13.04.2015 01:34 12,7 C 10,6 C 67 % 1024,3 hPa 0,0 l/m 0 min 0 min 0 W/m 31,4 km/h (5 Bft)
13.04.2015 01:36 12,6 C 10,6 C 67 % 1024,6 hPa 0,0 l/m 0 min 0 min 0 W/m 23,0 km/h (4 Bft)
13.04.2015 01:38 12,6 C 10,6 C 67 % 1024,8 hPa 0,0 l/m 0 min 0 min 0 W/m 23,0 km/h (4 Bft)
13.04.2015 01:40 12,6 C 11,1 C 67 % 1024,8 hPa 0,0 l/m 0 min 0 min 0 W/m 25,1 km/h (4 Bft)
13.04.2015 01:42 12,6 C 11,1 C 67 % 1024,9 hPa 0,0 l/m 0 min 0 min 0 W/m 25,1 km/h (4 Bft)
13.04.2015 01:44 12,6 C 11,1 C 66 % 1025,1 hPa 0,0 l/m 0 min 0 min 0 W/m 29,3 km/h (5 Bft)
13.04.2015 01:46 12,7 C 11,1 C 66 % 1025,0 hPa 0,0 l/m 0 min 0 min 0 W/m 25,1 km/h (4 Bft)
13.04.2015 01:48 12,7 C 11,1 C 66 % 1025,0 hPa 0,0 l/m 0 min 0 min 0 W/m 18,8 km/h (3 Bft)
13.04.2015 01:50 12,7 C 11,1 C 66 % 1025,0 hPa 0,0 l/m 0 min 0 min 0 W/m 16,7 km/h (3 Bft)
13.04.2015 01:52 12,7 C 10,6 C 66 % 1025,1 hPa 0,0 l/m 0 min 0 min 0 W/m 16,7 km/h (3 Bft)
13.04.2015 01:54 12,7 C 10,6 C 66 % 1025,1 hPa 0,0 l/m 0 min 0 min 0 W/m 20,9 km/h (4 Bft)
13.04.2015 01:56 12,7 C 10,6 C 66 % 1025,1 hPa 0,0 l/m 0 min 0 min 0 W/m 35,6 km/h (5 Bft)
13.04.2015 01:58 12,6 C 10,6 C 65 % 1025,1 hPa 0,0 l/m 0 min 0 min 0 W/m 39,7 km/h (6 Bft)
13.04.2015 02:00 12,6 C 10,6 C 65 % 1025,1 hPa 0,0 l/m 0 min 0 min 0 W/m 23,0 km/h (4 Bft)
13.04.2015 02:02 12,6 C 10,6 C 65 % 1025,1 hPa 0,0 l/m 0 min 0 min 0 W/m 25,1 km/h (4 Bft)
13.04.2015 02:04 12,5 C 10,6 C 64 % 1025,1 hPa 0,0 l/m 0 min 0 min 0 W/m 23,0 km/h (4 Bft)
13.04.2015 02:06 12,5 C 10,6 C 64 % 1025,2 hPa 0,0 l/m 0 min 0 min 0 W/m 23,0 km/h (4 Bft)
13.04.2015 02:08 12,4 C 10,6 C 64 % 1025,1 hPa 0,0 l/m 0 min 0 min 0 W/m 23,0 km/h (4 Bft)
13.04.2015 02:10 12,4 C 10,6 C 64 % 1025,2 hPa 0,0 l/m 0 min 0 min 0 W/m 16,7 km/h (3 Bft)
13.04.2015 02:12 12,4 C 10,6 C 64 % 1025,2 hPa 0,0 l/m 0 min 0 min 0 W/m 16,7 km/h (3 Bft)
13.04.2015 02:14 12,4 C 10,0 C 65 % 1025,3 hPa 0,0 l/m 0 min 0 min 0 W/m 14,6 km/h (3 Bft)
13.04.2015 02:16 12,3 C 10,6 C 65 % 1025,4 hPa 0,0 l/m 0 min 0 min 0 W/m 20,9 km/h (4 Bft)
13.04.2015 02:18 12,3 C 10,0 C 65 % 1025,3 hPa 0,0 l/m 0 min 0 min 0 W/m 23,0 km/h (4 Bft)
13.04.2015 02:20 12,2 C 10,0 C 65 % 1025,3 hPa 0,0 l/m 0 min 0 min 0 W/m 18,8 km/h (3 Bft)
13.04.2015 02:22 12,2 C 10,0 C 65 % 1025,3 hPa 0,0 l/m 0 min 0 min 0 W/m 20,9 km/h (4 Bft)
13.04.2015 02:24 12,2 C 10,0 C 65 % 1025,4 hPa 0,0 l/m 0 min 0 min 0 W/m 18,8 km/h (3 Bft)
13.04.2015 02:26 12,2 C 10,0 C 65 % 1025,4 hPa 0,0 l/m 0 min 0 min 0 W/m 14,6 km/h (3 Bft)
13.04.2015 02:28 12,1 C 10,0 C 65 % 1025,6 hPa 0,0 l/m 0 min 0 min 0 W/m 31,4 km/h (5 Bft)
13.04.2015 02:30 12,1 C 10,0 C 66 % 1025,5 hPa 0,0 l/m 0 min 0 min 0 W/m 29,3 km/h (5 Bft)
13.04.2015 02:32 12,1 C 10,0 C 66 % 1025,6 hPa 0,0 l/m 0 min 0 min 0 W/m 29,3 km/h (5 Bft)
13.04.2015 02:34 11,9 C 10,0 C 66 % 1025,5 hPa 0,0 l/m 0 min 0 min 0 W/m 35,6 km/h (5 Bft)
13.04.2015 02:36 11,9 C 10,0 C 67 % 1025,5 hPa 0,0 l/m 0 min 0 min 0 W/m 27,2 km/h (4 Bft)
13.04.2015 02:38 11,9 C 10,0 C 67 % 1025,5 hPa 0,0 l/m 0 min 0 min 0 W/m 25,1 km/h (4 Bft)
13.04.2015 02:40 11,8 C 10,0 C 67 % 1025,6 hPa 0,0 l/m 0 min 0 min 0 W/m 25,1 km/h (4 Bft)
13.04.2015 02:42 11,8 C 10,0 C 67 % 1025,6 hPa 0,0 l/m 0 min 0 min 0 W/m 29,3 km/h (5 Bft)
13.04.2015 02:44 11,8 C 10,0 C 68 % 1025,6 hPa 0,0 l/m 0 min 0 min 0 W/m 20,9 km/h (4 Bft)
13.04.2015 02:46 11,7 C 10,0 C 68 % 1025,6 hPa 0,0 l/m 0 min 0 min 0 W/m 16,7 km/h (3 Bft)
13.04.2015 02:48 11,7 C 10,0 C 68 % 1025,7 hPa 0,0 l/m 0 min 0 min 0 W/m 10,5 km/h (2 Bft)
13.04.2015 02:50 11,7 C 10,0 C 68 % 1025,7 hPa 0,0 l/m 0 min 0 min 0 W/m 20,9 km/h (4 Bft)
13.04.2015 02:52 11,7 C 10,0 C 69 % 1025,7 hPa 0,0 l/m 0 min 0 min 0 W/m 18,8 km/h (3 Bft)
13.04.2015 02:54 11,6 C 10,0 C 69 % 1025,7 hPa 0,0 l/m 0 min 0 min 0 W/m 12,6 km/h (3 Bft)
13.04.2015 02:56 11,6 C 10,0 C 69 % 1025,8 hPa 0,0 l/m 0 min 0 min 0 W/m 20,9 km/h (4 Bft)
13.04.2015 02:58 11,6 C 10,0 C 69 % 1025,9 hPa 0,0 l/m 0 min 0 min 0 W/m 16,7 km/h (3 Bft)
13.04.2015 03:00 11,6 C 10,0 C 69 % 1025,8 hPa 0,0 l/m 0 min 0 min 0 W/m 20,9 km/h (4 Bft)
13.04.2015 03:02 11,5 C 10,0 C 70 % 1025,8 hPa 0,0 l/m 0 min 0 min 0 W/m 27,2 km/h (4 Bft)
13.04.2015 03:04 11,5 C 10,0 C 70 % 1025,8 hPa 0,0 l/m 0 min 0 min 0 W/m 23,0 km/h (4 Bft)
13.04.2015 03:06 11,4 C 10,0 C 70 % 1025,8 hPa 0,0 l/m 0 min 0 min 0 W/m 18,8 km/h (3 Bft)
13.04.2015 03:08 11,4 C 10,0 C 71 % 1025,9 hPa 0,0 l/m 0 min 0 min 0 W/m 33,5 km/h (5 Bft)
13.04.2015 03:10 11,4 C 10,0 C 71 % 1025,9 hPa 0,0 l/m 0 min 0 min 0 W/m 23,0 km/h (4 Bft)
13.04.2015 03:12 11,4 C 10,0 C 72 % 1025,9 hPa 0,0 l/m 0 min 0 min 0 W/m 20,9 km/h (4 Bft)
13.04.2015 03:14 11,4 C 10,0 C 72 % 1025,9 hPa 0,0 l/m 0 min 0 min 0 W/m 18,8 km/h (3 Bft)
13.04.2015 03:16 11,3 C 10,0 C 72 % 1026,0 hPa 0,0 l/m 0 min 0 min 0 W/m 16,7 km/h (3 Bft)
13.04.2015 03:18 11,3 C 10,0 C 72 % 1026,1 hPa 0,0 l/m 0 min 0 min 0 W/m 20,9 km/h (4 Bft)
13.04.2015 03:20 11,3 C 10,0 C 73 % 1026,1 hPa 0,0 l/m 0 min 0 min 0 W/m 18,8 km/h (3 Bft)
13.04.2015 03:22 11,3 C 9,4 C 73 % 1026,2 hPa 0,0 l/m 0 min 0 min 0 W/m 20,9 km/h (4 Bft)
13.04.2015 03:24 11,3 C 9,4 C 74 % 1026,2 hPa 0,0 l/m 0 min 0 min 0 W/m 27,2 km/h (4 Bft)
13.04.2015 03:26 11,3 C 9,4 C 75 % 1026,2 hPa 0,0 l/m 0 min 0 min 0 W/m 25,1 km/h (4 Bft)
13.04.2015 03:28 11,3 C 9,4 C 75 % 1026,2 hPa 0,0 l/m 0 min 0 min 0 W/m 25,1 km/h (4 Bft)
13.04.2015 03:30 11,3 C 9,4 C 76 % 1026,3 hPa 0,0 l/m 0 min 0 min 0 W/m 25,1 km/h (4 Bft)
13.04.2015 03:32 11,2 C 9,4 C 76 % 1026,3 hPa 0,0 l/m 0 min 0 min 0 W/m 23,0 km/h (4 Bft)
13.04.2015 03:34 11,2 C 9,4 C 77 % 1026,3 hPa 0,0 l/m 0 min 0 min 0 W/m 25,1 km/h (4 Bft)
13.04.2015 03:36 11,1 C 9,4 C 77 % 1026,2 hPa 0,0 l/m 0 min 0 min 0 W/m 23,0 km/h (4 Bft)
13.04.2015 03:38 11,1 C 9,4 C 77 % 1026,4 hPa 0,0 l/m 0 min 0 min 0 W/m 18,8 km/h (3 Bft)
13.04.2015 03:40 11,1 C 9,4 C 77 % 1026,3 hPa 0,0 l/m 0 min 0 min 0 W/m 23,0 km/h (4 Bft)
13.04.2015 03:42 11,0 C 9,4 C 77 % 1026,3 hPa 0,0 l/m 0 min 0 min 0 W/m 29,3 km/h (5 Bft)
13.04.2015 03:44 10,9 C 9,4 C 77 % 1026,3 hPa 0,0 l/m 0 min 0 min 0 W/m 27,2 km/h (4 Bft)
13.04.2015 03:46 10,8 C 8,9 C 77 % 1026,3 hPa 0,0 l/m 0 min 0 min 0 W/m 23,0 km/h (4 Bft)
13.04.2015 03:48 10,8 C 8,9 C 77 % 1026,3 hPa 0,0 l/m 0 min 0 min 0 W/m 20,9 km/h (4 Bft)
13.04.2015 03:50 10,7 C 8,9 C 77 % 1026,4 hPa 0,0 l/m 0 min 0 min 0 W/m 20,9 km/h (4 Bft)
13.04.2015 03:52 10,7 C 8,9 C 77 % 1026,3 hPa 0,0 l/m 0 min 0 min 0 W/m 18,8 km/h (3 Bft)
13.04.2015 03:54 10,6 C 8,9 C 77 % 1026,4 hPa 0,0 l/m 0 min 0 min 0 W/m 20,9 km/h (4 Bft)
13.04.2015 03:56 10,6 C 8,9 C 77 % 1026,5 hPa 0,0 l/m 0 min 0 min 0 W/m 16,7 km/h (3 Bft)
13.04.2015 03:58 10,5 C 8,9 C 77 % 1026,5 hPa 0,0 l/m 0 min 0 min 0 W/m 23,0 km/h (4 Bft)
13.04.2015 04:00 10,5 C 8,9 C 77 % 1026,5 hPa 0,0 l/m 0 min 0 min 0 W/m 27,2 km/h (4 Bft)
13.04.2015 04:02 10,4 C 8,9 C 77 % 1026,5 hPa 0,0 l/m 0 min 0 min 0 W/m 25,1 km/h (4 Bft)
13.04.2015 04:04 10,3 C 8,9 C 77 % 1026,6 hPa 0,0 l/m 0 min 0 min 0 W/m 20,9 km/h (4 Bft)
13.04.2015 04:06 10,3 C 8,9 C 77 % 1026,7 hPa 0,0 l/m 0 min 0 min 0 W/m 23,0 km/h (4 Bft)
13.04.2015 04:08 10,2 C 8,9 C 77 % 1026,8 hPa 0,0 l/m 0 min 0 min 0 W/m 27,2 km/h (4 Bft)
13.04.2015 04:13 10,0 C 8,9 C 76 % 1026,8 hPa 0,0 l/m 0 min 0 min 0 W/m 23,0 km/h (4 Bft)
13.04.2015 04:14 10,0 C 8,3 C 76 % 1026,8 hPa 0,0 l/m 0 min 0 min 0 W/m 23,0 km/h (4 Bft)
13.04.2015 04:16 9,9 C 8,3 C 76 % 1026,8 hPa 0,0 l/m 0 min 0 min 0 W/m 23,0 km/h (4 Bft)
13.04.2015 04:18 9,9 C 8,3 C 76 % 1026,8 hPa 0,0 l/m 0 min 0 min 0 W/m 14,6 km/h (3 Bft)
13.04.2015 04:20 9,9 C 8,3 C 77 % 1026,9 hPa 0,0 l/m 0 min 0 min 0 W/m 18,8 km/h (3 Bft)
13.04.2015 04:22 9,8 C 8,3 C 77 % 1026,9 hPa 0,0 l/m 0 min 0 min 0 W/m 20,9 km/h (4 Bft)
13.04.2015 04:24 9,8 C 8,3 C 77 % 1026,9 hPa 0,0 l/m 0 min 0 min 0 W/m 16,7 km/h (3 Bft)
13.04.2015 04:26 9,8 C 8,3 C 77 % 1027,0 hPa 0,0 l/m 0 min 0 min 0 W/m 20,9 km/h (4 Bft)
13.04.2015 04:28 9,7 C 8,3 C 77 % 1027,0 hPa 0,0 l/m 0 min 0 min 0 W/m 29,3 km/h (5 Bft)
13.04.2015 04:30 9,7 C 8,3 C 78 % 1027,1 hPa 0,0 l/m 0 min 0 min 0 W/m 20,9 km/h (4 Bft)
13.04.2015 04:32 9,7 C 8,3 C 78 % 1027,0 hPa 0,0 l/m 0 min 0 min 0 W/m 16,7 km/h (3 Bft)
13.04.2015 04:34 9,7 C 8,3 C 78 % 1027,0 hPa 0,0 l/m 0 min 0 min 0 W/m 16,7 km/h (3 Bft)
13.04.2015 04:36 9,6 C 8,3 C 78 % 1027,0 hPa 0,0 l/m 0 min 0 min 0 W/m 18,8 km/h (3 Bft)
13.04.2015 04:38 9,6 C 8,3 C 78 % 1027,1 hPa 0,0 l/m 0 min 0 min 0 W/m 20,9 km/h (4 Bft)
13.04.2015 04:40 9,6 C 8,3 C 79 % 1027,0 hPa 0,0 l/m 0 min 0 min 0 W/m 18,8 km/h (3 Bft)
13.04.2015 04:42 9,5 C 8,3 C 79 % 1027,1 hPa 0,0 l/m 0 min 0 min 0 W/m 14,6 km/h (3 Bft)
13.04.2015 04:44 9,4 C 7,8 C 79 % 1027,1 hPa 0,0 l/m 0 min 0 min 0 W/m 20,9 km/h (4 Bft)
13.04.2015 04:46 9,4 C 7,8 C 79 % 1027,1 hPa 0,0 l/m 0 min 0 min 0 W/m 10,5 km/h (2 Bft)
13.04.2015 04:48 9,4 C 7,8 C 79 % 1027,1 hPa 0,0 l/m 0 min 0 min 0 W/m 18,8 km/h (3 Bft)
13.04.2015 04:50 9,4 C 7,8 C 79 % 1027,1 hPa 0,0 l/m 0 min 0 min 0 W/m 10,5 km/h (2 Bft)
13.04.2015 04:52 9,4 C 7,8 C 80 % 1027,2 hPa 0,0 l/m 0 min 0 min 0 W/m 12,6 km/h (3 Bft)
13.04.2015 04:54 9,3 C 7,8 C 80 % 1027,2 hPa 0,0 l/m 0 min 0 min 0 W/m 23,0 km/h (4 Bft)
13.04.2015 04:56 9,3 C 7,8 C 80 % 1027,3 hPa 0,0 l/m 0 min 0 min 0 W/m 25,1 km/h (4 Bft)
13.04.2015 04:58 9,2 C 7,8 C 79 % 1027,2 hPa 0,0 l/m 0 min 0 min 0 W/m 20,9 km/h (4 Bft)
13.04.2015 05:00 9,2 C 7,8 C 79 % 1027,4 hPa 0,0 l/m 0 min 0 min 0 W/m 23,0 km/h (4 Bft)
13.04.2015 05:02 9,2 C 7,8 C 79 % 1027,4 hPa 0,0 l/m 0 min 0 min 0 W/m 18,8 km/h (3 Bft)
13.04.2015 05:04 9,1 C 7,8 C 79 % 1027,5 hPa 0,0 l/m 0 min 0 min 0 W/m 14,6 km/h (3 Bft)
13.04.2015 05:06 9,1 C 7,8 C 78 % 1027,5 hPa 0,0 l/m 0 min 0 min 0 W/m 16,7 km/h (3 Bft)
13.04.2015 05:08 9,1 C 7,8 C 78 % 1027,6 hPa 0,0 l/m 0 min 0 min 0 W/m 20,9 km/h (4 Bft)
13.04.2015 05:10 9,0 C 7,8 C 79 % 1027,6 hPa 0,0 l/m 0 min 0 min 0 W/m 18,8 km/h (3 Bft)
13.04.2015 05:12 9,0 C 7,8 C 79 % 1027,6 hPa 0,0 l/m 0 min 0 min 0 W/m 23,0 km/h (4 Bft)
13.04.2015 05:14 8,9 C 7,8 C 79 % 1027,7 hPa 0,0 l/m 0 min 0 min 0 W/m 20,9 km/h (4 Bft)
13.04.2015 05:16 8,9 C 7,8 C 79 % 1027,7 hPa 0,0 l/m 0 min 0 min 0 W/m 25,1 km/h (4 Bft)
13.04.2015 05:18 8,9 C 7,8 C 79 % 1027,8 hPa 0,0 l/m 0 min 0 min 0 W/m 16,7 km/h (3 Bft)
13.04.2015 05:20 8,8 C 7,8 C 79 % 1027,8 hPa 0,0 l/m 0 min 0 min 0 W/m 23,0 km/h (4 Bft)
13.04.2015 05:22 8,8 C 7,8 C 79 % 1027,8 hPa 0,0 l/m 0 min 0 min 0 W/m 18,8 km/h (3 Bft)
13.04.2015 05:24 8,8 C 7,8 C 79 % 1027,8 hPa 0,0 l/m 0 min 0 min 0 W/m 20,9 km/h (4 Bft)
13.04.2015 05:26 8,8 C 7,2 C 79 % 1027,8 hPa 0,0 l/m 0 min 0 min 0 W/m 18,8 km/h (3 Bft)
13.04.2015 05:28 8,7 C 7,2 C 79 % 1027,8 hPa 0,0 l/m 0 min 0 min 0 W/m 20,9 km/h (4 Bft)
13.04.2015 05:30 8,7 C 7,2 C 80 % 1027,8 hPa 0,0 l/m 0 min 2 min 0 W/m 20,9 km/h (4 Bft)
13.04.2015 05:32 8,7 C 7,2 C 80 % 1027,9 hPa 0,0 l/m 0 min 0 min 0 W/m 20,9 km/h (4 Bft)
13.04.2015 05:34 8,7 C 7,2 C 80 % 1027,9 hPa 0,0 l/m 0 min 2 min 0 W/m 14,6 km/h (3 Bft)
13.04.2015 05:36 8,6 C 7,2 C 80 % 1027,8 hPa 0,0 l/m 0 min 2 min 0 W/m 23,0 km/h (4 Bft)
13.04.2015 05:38 8,6 C 7,2 C 80 % 1027,9 hPa 0,0 l/m 0 min 0 min 0 W/m 25,1 km/h (4 Bft)
13.04.2015 05:40 8,6 C 7,2 C 81 % 1027,9 hPa 0,0 l/m 0 min 2 min 0 W/m 20,9 km/h (4 Bft)
13.04.2015 05:42 8,5 C 7,2 C 81 % 1028,1 hPa 0,0 l/m 0 min 2 min 0 W/m 14,6 km/h (3 Bft)
13.04.2015 05:44 8,5 C 6,7 C 81 % 1028,1 hPa 0,0 l/m 0 min 0 min 0 W/m 20,9 km/h (4 Bft)
13.04.2015 05:46 8,4 C 6,7 C 81 % 1028,0 hPa 0,0 l/m 0 min 2 min 0 W/m 16,7 km/h (3 Bft)
13.04.2015 05:48 8,4 C 6,7 C 81 % 1028,2 hPa 0,0 l/m 0 min 2 min 0 W/m 23,0 km/h (4 Bft)
13.04.2015 05:50 8,3 C 6,7 C 82 % 1028,2 hPa 0,0 l/m 0 min 2 min 0 W/m 16,7 km/h (3 Bft)
13.04.2015 05:52 8,3 C 6,7 C 82 % 1028,2 hPa 0,0 l/m 0 min 2 min 0 W/m 20,9 km/h (4 Bft)
13.04.2015 05:54 8,2 C 6,1 C 82 % 1028,2 hPa 0,0 l/m 0 min 0 min 0 W/m 18,8 km/h (3 Bft)
13.04.2015 05:56 8,2 C 6,1 C 82 % 1028,2 hPa 0,0 l/m 0 min 0 min 0 W/m 10,5 km/h (2 Bft)
13.04.2015 05:58 8,1 C 6,1 C 82 % 1028,2 hPa 0,0 l/m 0 min 0 min 0 W/m 18,8 km/h (3 Bft)
13.04.2015 06:00 8,1 C 6,1 C 82 % 1028,2 hPa 0,0 l/m 0 min 0 min 0 W/m 23,0 km/h (4 Bft)
13.04.2015 06:02 8,0 C 6,1 C 83 % 1028,3 hPa 0,0 l/m 0 min 0 min 0 W/m 20,9 km/h (4 Bft)
13.04.2015 06:06 7,9 C 6,1 C 83 % 1028,3 hPa 0,0 l/m 0 min 0 min 0 W/m 25,1 km/h (4 Bft)
13.04.2015 06:08 7,9 C 6,1 C 83 % 1028,4 hPa 0,0 l/m 0 min 0 min 0 W/m 25,1 km/h (4 Bft)
13.04.2015 06:10 7,8 C 6,1 C 83 % 1028,5 hPa 0,0 l/m 0 min 0 min 0 W/m 25,1 km/h (4 Bft)
13.04.2015 06:12 7,8 C 6,7 C 83 % 1028,4 hPa 0,0 l/m 0 min 0 min 0 W/m 27,2 km/h (4 Bft)
13.04.2015 06:14 7,7 C 6,7 C 84 % 1028,5 hPa 0,0 l/m 0 min 0 min 0 W/m 20,9 km/h (4 Bft)
13.04.2015 06:16 7,7 C 6,7 C 84 % 1028,5 hPa 0,0 l/m 0 min 0 min 0 W/m 20,9 km/h (4 Bft)
13.04.2015 06:18 7,7 C 6,7 C 84 % 1028,4 hPa 0,0 l/m 0 min 0 min 0 W/m 20,9 km/h (4 Bft)
13.04.2015 06:20 7,6 C 6,7 C 84 % 1028,5 hPa 0,0 l/m 0 min 0 min 0 W/m 18,8 km/h (3 Bft)
13.04.2015 06:22 7,6 C 6,7 C 84 % 1028,5 hPa 0,0 l/m 0 min 0 min 0 W/m 14,6 km/h (3 Bft)
13.04.2015 06:24 7,6 C 6,7 C 84 % 1028,5 hPa 0,0 l/m 0 min 0 min 0 W/m 14,6 km/h (3 Bft)
13.04.2015 06:26 7,6 C 6,7 C 84 % 1028,4 hPa 0,0 l/m 0 min 0 min 0 W/m 10,5 km/h (2 Bft)
13.04.2015 06:28 7,6 C 6,7 C 84 % 1028,4 hPa 0,0 l/m 0 min 0 min 0 W/m 16,7 km/h (3 Bft)
13.04.2015 06:30 7,6 C 6,7 C 85 % 1028,5 hPa 0,0 l/m 0 min 0 min 0 W/m 14,6 km/h (3 Bft)
13.04.2015 06:32 7,6 C 6,7 C 85 % 1028,5 hPa 0,0 l/m 0 min 0 min 0 W/m 16,7 km/h (3 Bft)
13.04.2015 06:34 7,6 C 6,7 C 85 % 1028,6 hPa 0,0 l/m 0 min 0 min 0 W/m 12,6 km/h (3 Bft)
13.04.2015 06:36 7,5 C 6,7 C 85 % 1028,6 hPa 0,0 l/m 0 min 0 min 0 W/m 12,6 km/h (3 Bft)
13.04.2015 06:38 7,5 C 6,7 C 85 % 1028,6 hPa 0,0 l/m 0 min 0 min 0 W/m 16,7 km/h (3 Bft)
13.04.2015 06:40 7,5 C 6,1 C 85 % 1028,7 hPa 0,0 l/m 0 min 0 min 0 W/m 12,6 km/h (3 Bft)
13.04.2015 06:42 7,5 C 6,7 C 85 % 1028,8 hPa 0,0 l/m 0 min 0 min 3 W/m 14,6 km/h (3 Bft)
13.04.2015 06:44 7,4 C 6,7 C 85 % 1028,9 hPa 0,0 l/m 0 min 0 min 5 W/m 14,6 km/h (3 Bft)
13.04.2015 06:46 7,4 C 6,7 C 85 % 1028,8 hPa 0,0 l/m 0 min 0 min 5 W/m 16,7 km/h (3 Bft)
13.04.2015 06:48 7,4 C 6,7 C 85 % 1028,9 hPa 0,0 l/m 0 min 0 min 5 W/m 8,4 km/h (2 Bft)
13.04.2015 06:50 7,4 C 6,1 C 85 % 1028,9 hPa 0,0 l/m 0 min 0 min 6 W/m 10,5 km/h (2 Bft)
13.04.2015 06:52 7,4 C 6,7 C 86 % 1029,0 hPa 0,0 l/m 0 min 0 min 7 W/m 8,4 km/h (2 Bft)
13.04.2015 06:54 7,4 C 6,1 C 86 % 1028,9 hPa 0,0 l/m 0 min 0 min 7 W/m 16,7 km/h (3 Bft)
13.04.2015 06:56 7,4 C 6,7 C 86 % 1028,9 hPa 0,0 l/m 0 min 0 min 9 W/m 10,5 km/h (2 Bft)
13.04.2015 06:58 7,4 C 6,7 C 86 % 1029,0 hPa 0,0 l/m 2 min 0 min 11 W/m 10,5 km/h (2 Bft)
13.04.2015 07:00 7,4 C 6,7 C 86 % 1029,0 hPa 0,0 l/m 0 min 0 min 11 W/m 12,6 km/h (3 Bft)
13.04.2015 07:02 7,4 C 6,7 C 86 % 1029,0 hPa 0,0 l/m 0 min 0 min 12 W/m 12,6 km/h (3 Bft)
13.04.2015 07:04 7,4 C 6,7 C 86 % 1029,0 hPa 0,0 l/m 0 min 0 min 14 W/m 14,6 km/h (3 Bft)
13.04.2015 07:06 7,4 C 6,7 C 86 % 1029,0 hPa 0,0 l/m 0 min 0 min 15 W/m 10,5 km/h (2 Bft)
13.04.2015 07:08 7,4 C 6,7 C 86 % 1029,0 hPa 0,0 l/m 0 min 0 min 16 W/m 14,6 km/h (3 Bft)
13.04.2015 07:10 7,3 C 6,7 C 86 % 1029,1 hPa 0,0 l/m 0 min 0 min 16 W/m 12,6 km/h (3 Bft)
13.04.2015 07:12 7,3 C 6,7 C 86 % 1029,1 hPa 0,0 l/m 0 min 0 min 16 W/m 16,7 km/h (3 Bft)
13.04.2015 07:14 7,3 C 6,7 C 86 % 1029,0 hPa 0,0 l/m 0 min 0 min 18 W/m 10,5 km/h (2 Bft)
13.04.2015 07:16 7,3 C 6,7 C 86 % 1029,1 hPa 0,0 l/m 0 min 0 min 20 W/m 16,7 km/h (3 Bft)
13.04.2015 07:18 7,3 C 6,7 C 86 % 1029,1 hPa 0,0 l/m 0 min 0 min 23 W/m 14,6 km/h (3 Bft)
13.04.2015 07:20 7,3 C 6,7 C 86 % 1029,1 hPa 0,0 l/m 0 min 0 min 27 W/m 14,6 km/h (3 Bft)
13.04.2015 07:22 7,3 C 6,7 C 86 % 1029,1 hPa 0,0 l/m 0 min 0 min 28 W/m 12,6 km/h (3 Bft)
13.04.2015 07:24 7,3 C 6,7 C 86 % 1029,1 hPa 0,0 l/m 0 min 0 min 33 W/m 12,6 km/h (3 Bft)
13.04.2015 07:26 7,3 C 6,7 C 86 % 1029,1 hPa 0,0 l/m 0 min 0 min 37 W/m 10,5 km/h (2 Bft)
13.04.2015 07:28 7,3 C 6,7 C 86 % 1029,2 hPa 0,0 l/m 0 min 0 min 39 W/m 12,6 km/h (3 Bft)
13.04.2015 07:30 7,3 C 6,7 C 87 % 1029,2 hPa 0,0 l/m 0 min 0 min 39 W/m 14,6 km/h (3 Bft)
13.04.2015 07:32 7,3 C 6,7 C 87 % 1029,2 hPa 0,0 l/m 0 min 0 min 39 W/m 10,5 km/h (2 Bft)
13.04.2015 07:34 7,3 C 6,7 C 87 % 1029,2 hPa 0,0 l/m 0 min 0 min 46 W/m 10,5 km/h (2 Bft)
13.04.2015 07:36 7,3 C 6,7 C 87 % 1029,1 hPa 0,0 l/m 0 min 0 min 44 W/m 14,6 km/h (3 Bft)
13.04.2015 07:38 7,3 C 6,7 C 87 % 1029,2 hPa 0,0 l/m 0 min 0 min 54 W/m 12,6 km/h (3 Bft)
13.04.2015 07:40 7,3 C 6,7 C 87 % 1029,3 hPa 0,0 l/m 0 min 0 min 62 W/m 18,8 km/h (3 Bft)
13.04.2015 07:42 7,4 C 6,7 C 87 % 1029,3 hPa 0,0 l/m 0 min 0 min 65 W/m 14,6 km/h (3 Bft)
13.04.2015 07:44 7,4 C 6,7 C 87 % 1029,3 hPa 0,0 l/m 0 min 0 min 60 W/m 12,6 km/h (3 Bft)
13.04.2015 07:46 7,4 C 6,7 C 87 % 1029,4 hPa 0,0 l/m 0 min 0 min 70 W/m 14,6 km/h (3 Bft)
13.04.2015 07:48 7,4 C 6,7 C 87 % 1029,5 hPa 0,0 l/m 0 min 0 min 68 W/m 12,6 km/h (3 Bft)
13.04.2015 07:50 7,4 C 6,7 C 87 % 1029,4 hPa 0,0 l/m 0 min 0 min 72 W/m 10,5 km/h (2 Bft)
13.04.2015 07:52 7,4 C 6,7 C 87 % 1029,4 hPa 0,0 l/m 0 min 0 min 66 W/m 12,6 km/h (3 Bft)
13.04.2015 07:54 7,4 C 6,7 C 86 % 1029,5 hPa 0,0 l/m 0 min 0 min 64 W/m 12,6 km/h (3 Bft)
13.04.2015 07:56 7,4 C 6,7 C 86 % 1029,6 hPa 0,0 l/m 0 min 0 min 74 W/m 14,6 km/h (3 Bft)
13.04.2015 07:58 7,4 C 6,7 C 86 % 1029,6 hPa 0,0 l/m 0 min 0 min 76 W/m 12,6 km/h (3 Bft)
13.04.2015 08:00 7,4 C 6,7 C 86 % 1029,6 hPa 0,0 l/m 0 min 0 min 75 W/m 10,5 km/h (2 Bft)
13.04.2015 08:02 7,4 C 7,2 C 86 % 1029,6 hPa 0,0 l/m 0 min 0 min 79 W/m 10,5 km/h (2 Bft)
13.04.2015 08:04 7,4 C 6,7 C 86 % 1029,7 hPa 0,0 l/m 0 min 0 min 72 W/m 12,6 km/h (3 Bft)
13.04.2015 08:06 7,4 C 6,7 C 86 % 1029,7 hPa 0,0 l/m 0 min 0 min 70 W/m 8,4 km/h (2 Bft)
13.04.2015 08:08 7,4 C 6,7 C 86 % 1029,8 hPa 0,0 l/m 0 min 0 min 76 W/m 12,6 km/h (3 Bft)
13.04.2015 08:10 7,4 C 6,7 C 86 % 1029,8 hPa 0,0 l/m 0 min 0 min 93 W/m 10,5 km/h (2 Bft)
13.04.2015 08:12 7,4 C 6,7 C 86 % 1029,7 hPa 0,0 l/m 2 min 0 min 128 W/m 10,5 km/h (2 Bft)
13.04.2015 08:14 7,4 C 7,2 C 86 % 1029,8 hPa 0,0 l/m 2 min 0 min 178 W/m 10,5 km/h (2 Bft)
13.04.2015 08:16 7,4 C 7,2 C 86 % 1029,8 hPa 0,0 l/m 2 min 0 min 191 W/m 8,4 km/h (2 Bft)
13.04.2015 08:18 7,5 C 7,2 C 86 % 1029,8 hPa 0,0 l/m 2 min 0 min 205 W/m 14,6 km/h (3 Bft)
13.04.2015 08:20 7,5 C 7,2 C 86 % 1029,8 hPa 0,0 l/m 2 min 0 min 234 W/m 8,4 km/h (2 Bft)
13.04.2015 08:22 7,5 C 7,2 C 86 % 1029,8 hPa 0,0 l/m 2 min 0 min 235 W/m 8,4 km/h (2 Bft)
13.04.2015 08:24 7,5 C 7,2 C 86 % 1029,9 hPa 0,0 l/m 2 min 0 min 228 W/m 10,5 km/h (2 Bft)
13.04.2015 08:26 7,6 C 7,2 C 86 % 1029,9 hPa 0,0 l/m 2 min 0 min 196 W/m 8,4 km/h (2 Bft)
13.04.2015 08:28 7,6 C 7,2 C 85 % 1030,0 hPa 0,0 l/m 2 min 0 min 143 W/m 8,4 km/h (2 Bft)
13.04.2015 08:30 7,6 C 7,2 C 85 % 1030,0 hPa 0,0 l/m 2 min 0 min 171 W/m 12,6 km/h (3 Bft)
13.04.2015 08:32 7,6 C 7,2 C 85 % 1030,0 hPa 0,0 l/m 2 min 0 min 238 W/m 10,5 km/h (2 Bft)
13.04.2015 08:34 7,6 C 7,2 C 85 % 1030,1 hPa 0,0 l/m 2 min 0 min 263 W/m 12,6 km/h (3 Bft)
13.04.2015 08:36 7,6 C 7,2 C 85 % 1030,1 hPa 0,0 l/m 2 min 0 min 272 W/m 14,6 km/h (3 Bft)
13.04.2015 08:38 7,7 C 7,2 C 86 % 1030,1 hPa 0,0 l/m 2 min 0 min 262 W/m 18,8 km/h (3 Bft)
13.04.2015 08:40 7,7 C 7,2 C 86 % 1030,2 hPa 0,0 l/m 2 min 0 min 260 W/m 12,6 km/h (3 Bft)
13.04.2015 08:42 7,7 C 7,2 C 86 % 1030,2 hPa 0,0 l/m 2 min 0 min 281 W/m 10,5 km/h (2 Bft)
13.04.2015 08:44 7,7 C 7,2 C 86 % 1030,2 hPa 0,0 l/m 2 min 0 min 277 W/m 16,7 km/h (3 Bft)
13.04.2015 08:46 7,7 C 6,7 C 86 % 1030,2 hPa 0,0 l/m 2 min 0 min 273 W/m 18,8 km/h (3 Bft)
13.04.2015 08:48 7,7 C 7,2 C 85 % 1030,3 hPa 0,0 l/m 2 min 0 min 269 W/m 14,6 km/h (3 Bft)
13.04.2015 08:50 7,7 C 6,7 C 85 % 1030,3 hPa 0,0 l/m 2 min 0 min 173 W/m 14,6 km/h (3 Bft)
13.04.2015 08:52 7,7 C 6,7 C 85 % 1030,3 hPa 0,0 l/m 2 min 0 min 197 W/m 14,6 km/h (3 Bft)
13.04.2015 08:54 7,7 C 6,7 C 85 % 1030,3 hPa 0,0 l/m 2 min 0 min 246 W/m 18,8 km/h (3 Bft)
13.04.2015 08:56 7,7 C 6,7 C 85 % 1030,3 hPa 0,0 l/m 2 min 0 min 271 W/m 14,6 km/h (3 Bft)
13.04.2015 08:58 7,7 C 6,7 C 85 % 1030,3 hPa 0,0 l/m 2 min 0 min 310 W/m 14,6 km/h (3 Bft)
13.04.2015 09:00 7,7 C 7,2 C 85 % 1030,5 hPa 0,0 l/m 2 min 0 min 299 W/m 12,6 km/h (3 Bft)
13.04.2015 09:02 7,7 C 7,2 C 85 % 1030,5 hPa 0,0 l/m 2 min 0 min 286 W/m 16,7 km/h (3 Bft)
13.04.2015 09:04 7,7 C 7,2 C 84 % 1030,5 hPa 0,0 l/m 2 min 0 min 294 W/m 12,6 km/h (3 Bft)
13.04.2015 09:06 7,7 C 7,2 C 84 % 1030,5 hPa 0,0 l/m 2 min 0 min 306 W/m 8,4 km/h (2 Bft)
13.04.2015 09:08 7,8 C 7,2 C 84 % 1030,6 hPa 0,0 l/m 2 min 0 min 308 W/m 12,6 km/h (3 Bft)
13.04.2015 09:10 7,8 C 7,2 C 84 % 1030,5 hPa 0,0 l/m 2 min 0 min 184 W/m 14,6 km/h (3 Bft)
13.04.2015 09:12 7,8 C 7,2 C 84 % 1030,6 hPa 0,0 l/m 2 min 0 min 185 W/m 12,6 km/h (3 Bft)
13.04.2015 09:14 7,8 C 7,2 C 84 % 1030,6 hPa 0,0 l/m 2 min 0 min 277 W/m 10,5 km/h (2 Bft)
13.04.2015 09:16 7,9 C 7,2 C 84 % 1030,7 hPa 0,0 l/m 2 min 0 min 368 W/m 10,5 km/h (2 Bft)
13.04.2015 09:18 7,9 C 7,8 C 84 % 1030,7 hPa 0,0 l/m 2 min 0 min 346 W/m 12,6 km/h (3 Bft)
13.04.2015 09:20 7,9 C 7,2 C 84 % 1030,7 hPa 0,0 l/m 2 min 0 min 246 W/m 14,6 km/h (3 Bft)
13.04.2015 09:22 8,0 C 7,2 C 84 % 1030,7 hPa 0,0 l/m 2 min 0 min 235 W/m 12,6 km/h (3 Bft)
13.04.2015 09:24 8,0 C 7,2 C 84 % 1030,8 hPa 0,0 l/m 2 min 0 min 244 W/m 14,6 km/h (3 Bft)
13.04.2015 09:26 8,1 C 7,2 C 83 % 1030,7 hPa 0,0 l/m 2 min 0 min 207 W/m 10,5 km/h (2 Bft)
13.04.2015 09:28 8,1 C 7,2 C 83 % 1030,7 hPa 0,0 l/m 0 min 0 min 157 W/m 12,6 km/h (3 Bft)
13.04.2015 09:30 8,1 C 7,2 C 83 % 1030,8 hPa 0,0 l/m 0 min 0 min 180 W/m 10,5 km/h (2 Bft)
13.04.2015 09:32 8,1 C 7,2 C 83 % 1030,8 hPa 0,0 l/m 2 min 0 min 358 W/m 10,5 km/h (2 Bft)
13.04.2015 09:34 8,1 C 7,2 C 83 % 1030,9 hPa 0,0 l/m 2 min 0 min 357 W/m 10,5 km/h (2 Bft)
13.04.2015 09:36 8,2 C 7,8 C 83 % 1031,0 hPa 0,0 l/m 2 min 0 min 440 W/m 10,5 km/h (2 Bft)
13.04.2015 09:38 8,2 C 7,8 C 83 % 1031,0 hPa 0,0 l/m 2 min 0 min 438 W/m 8,4 km/h (2 Bft)
13.04.2015 09:40 8,3 C 8,3 C 83 % 1031,1 hPa 0,0 l/m 2 min 0 min 463 W/m 12,6 km/h (3 Bft)
13.04.2015 09:42 8,3 C 8,3 C 83 % 1031,1 hPa 0,0 l/m 2 min 0 min 459 W/m 12,6 km/h (3 Bft)
13.04.2015 09:44 8,3 C 7,8 C 82 % 1031,0 hPa 0,0 l/m 2 min 0 min 465 W/m 14,6 km/h (3 Bft)
13.04.2015 09:46 8,4 C 8,3 C 81 % 1031,1 hPa 0,0 l/m 2 min 0 min 458 W/m 8,4 km/h (2 Bft)
13.04.2015 09:48 8,4 C 8,3 C 81 % 1031,1 hPa 0,0 l/m 2 min 0 min 478 W/m 16,7 km/h (3 Bft)
13.04.2015 09:50 8,4 C 8,3 C 81 % 1031,1 hPa 0,0 l/m 2 min 0 min 443 W/m 10,5 km/h (2 Bft)
13.04.2015 09:52 8,5 C 8,9 C 80 % 1031,1 hPa 0,0 l/m 2 min 0 min 386 W/m 14,6 km/h (3 Bft)
13.04.2015 09:54 8,5 C 8,3 C 78 % 1031,2 hPa 0,0 l/m 2 min 0 min 353 W/m 16,7 km/h (3 Bft)
13.04.2015 09:56 8,6 C 8,3 C 78 % 1031,1 hPa 0,0 l/m 2 min 0 min 279 W/m 10,5 km/h (2 Bft)
13.04.2015 09:58 8,6 C 8,3 C 77 % 1031,1 hPa 0,0 l/m 0 min 0 min 232 W/m 14,6 km/h (3 Bft)
13.04.2015 10:00 8,6 C 8,3 C 76 % 1031,2 hPa 0,0 l/m 2 min 0 min 516 W/m 14,6 km/h (3 Bft)
13.04.2015 10:02 8,7 C 8,9 C 75 % 1031,1 hPa 0,0 l/m 2 min 0 min 487 W/m 12,6 km/h (3 Bft)
13.04.2015 10:04 8,7 C 8,9 C 75 % 1031,2 hPa 0,0 l/m 2 min 0 min 444 W/m 8,4 km/h (2 Bft)
13.04.2015 10:06 8,7 C 8,9 C 75 % 1031,2 hPa 0,0 l/m 2 min 0 min 445 W/m 16,7 km/h (3 Bft)
13.04.2015 10:08 8,8 C 8,9 C 75 % 1031,3 hPa 0,0 l/m 2 min 0 min 494 W/m 20,9 km/h (4 Bft)
13.04.2015 10:10 8,9 C 8,9 C 76 % 1031,3 hPa 0,0 l/m 2 min 0 min 396 W/m 12,6 km/h (3 Bft)
13.04.2015 10:12 8,9 C 8,9 C 75 % 1031,3 hPa 0,0 l/m 2 min 0 min 258 W/m 8,4 km/h (2 Bft)
13.04.2015 10:14 8,9 C 8,9 C 75 % 1031,3 hPa 0,0 l/m 0 min 0 min 250 W/m 14,6 km/h (3 Bft)
13.04.2015 10:16 9,0 C 8,9 C 75 % 1031,3 hPa 0,0 l/m 2 min 0 min 293 W/m 12,6 km/h (3 Bft)
13.04.2015 10:18 9,1 C 8,9 C 75 % 1031,3 hPa 0,0 l/m 2 min 0 min 398 W/m 16,7 km/h (3 Bft)
13.04.2015 10:20 9,1 C 8,9 C 74 % 1031,4 hPa 0,0 l/m 2 min 0 min 545 W/m 12,6 km/h (3 Bft)
13.04.2015 10:22 9,1 C 8,9 C 74 % 1031,4 hPa 0,0 l/m 2 min 0 min 286 W/m 12,6 km/h (3 Bft)
13.04.2015 10:24 9,2 C 8,9 C 74 % 1031,3 hPa 0,0 l/m 2 min 0 min 296 W/m 12,6 km/h (3 Bft)
13.04.2015 10:26 9,2 C 9,4 C 74 % 1031,4 hPa 0,0 l/m 2 min 0 min 546 W/m 12,6 km/h (3 Bft)
13.04.2015 10:28 9,3 C 9,4 C 74 % 1031,4 hPa 0,0 l/m 2 min 0 min 538 W/m 10,5 km/h (2 Bft)
13.04.2015 10:30 9,3 C 8,9 C 74 % 1031,3 hPa 0,0 l/m 0 min 0 min 231 W/m 10,5 km/h (2 Bft)
13.04.2015 10:32 9,3 C 8,9 C 73 % 1031,3 hPa 0,0 l/m 0 min 0 min 240 W/m 8,4 km/h (2 Bft)
13.04.2015 10:34 9,4 C 8,9 C 73 % 1031,4 hPa 0,0 l/m 2 min 0 min 405 W/m 14,6 km/h (3 Bft)
13.04.2015 10:36 9,4 C 9,4 C 72 % 1031,4 hPa 0,0 l/m 2 min 0 min 566 W/m 16,7 km/h (3 Bft)
13.04.2015 10:38 9,4 C 8,9 C 71 % 1031,4 hPa 0,0 l/m 2 min 0 min 557 W/m 12,6 km/h (3 Bft)
13.04.2015 10:40 9,4 C 8,9 C 71 % 1031,4 hPa 0,0 l/m 2 min 0 min 599 W/m 10,5 km/h (2 Bft)
13.04.2015 10:42 9,5 C 8,9 C 71 % 1031,4 hPa 0,0 l/m 2 min 0 min 572 W/m 8,4 km/h (2 Bft)
13.04.2015 10:44 9,6 C 9,4 C 71 % 1031,5 hPa 0,0 l/m 2 min 0 min 618 W/m 10,5 km/h (2 Bft)
13.04.2015 10:46 9,6 C 9,4 C 72 % 1031,5 hPa 0,0 l/m 2 min 0 min 602 W/m 16,7 km/h (3 Bft)
13.04.2015 10:48 9,7 C 9,4 C 71 % 1031,5 hPa 0,0 l/m 2 min 0 min 531 W/m 18,8 km/h (3 Bft)
13.04.2015 10:50 9,7 C 9,4 C 70 % 1031,6 hPa 0,0 l/m 2 min 0 min 378 W/m 12,6 km/h (3 Bft)
13.04.2015 10:52 9,8 C 9,4 C 70 % 1031,6 hPa 0,0 l/m 2 min 0 min 544 W/m 8,4 km/h (2 Bft)
13.04.2015 10:54 9,8 C 9,4 C 70 % 1031,7 hPa 0,0 l/m 2 min 0 min 504 W/m 8,4 km/h (2 Bft)
13.04.2015 10:56 9,9 C 9,4 C 70 % 1031,7 hPa 0,0 l/m 2 min 0 min 489 W/m 8,4 km/h (2 Bft)
13.04.2015 10:58 9,9 C 9,4 C 69 % 1031,6 hPa 0,0 l/m 2 min 0 min 577 W/m 6,3 km/h (2 Bft)
13.04.2015 11:00 9,9 C 9,4 C 69 % 1031,8 hPa 0,0 l/m 2 min 0 min 562 W/m 14,6 km/h (3 Bft)
13.04.2015 11:02 10,0 C 10,0 C 69 % 1031,7 hPa 0,0 l/m 2 min 0 min 635 W/m 12,6 km/h (3 Bft)
13.04.2015 11:04 10,1 C 9,4 C 67 % 1031,8 hPa 0,0 l/m 2 min 0 min 679 W/m 8,4 km/h (2 Bft)
13.04.2015 11:06 10,1 C 9,4 C 67 % 1031,7 hPa 0,0 l/m 2 min 0 min 440 W/m 14,6 km/h (3 Bft)
13.04.2015 11:08 10,1 C 9,4 C 66 % 1031,8 hPa 0,0 l/m 2 min 0 min 304 W/m 8,4 km/h (2 Bft)
13.04.2015 11:10 10,2 C 10,0 C 67 % 1031,8 hPa 0,0 l/m 2 min 0 min 616 W/m 12,6 km/h (3 Bft)
13.04.2015 11:12 10,3 C 10,0 C 67 % 1031,8 hPa 0,0 l/m 2 min 0 min 628 W/m 16,7 km/h (3 Bft)
13.04.2015 11:14 10,3 C 10,0 C 66 % 1031,8 hPa 0,0 l/m 2 min 0 min 608 W/m 10,5 km/h (2 Bft)
13.04.2015 11:16 10,3 C 10,0 C 66 % 1031,8 hPa 0,0 l/m 2 min 0 min 584 W/m 10,5 km/h (2 Bft)
13.04.2015 11:18 10,4 C 10,0 C 66 % 1031,8 hPa 0,0 l/m 2 min 0 min 609 W/m 8,4 km/h (2 Bft)
13.04.2015 11:20 10,5 C 10,6 C 67 % 1031,9 hPa 0,0 l/m 2 min 0 min 607 W/m 8,4 km/h (2 Bft)
13.04.2015 11:22 10,6 C 10,6 C 67 % 1031,8 hPa 0,0 l/m 2 min 0 min 643 W/m 18,8 km/h (3 Bft)
13.04.2015 11:24 10,6 C 10,6 C 66 % 1031,8 hPa 0,0 l/m 2 min 0 min 641 W/m 18,8 km/h (3 Bft)
13.04.2015 11:26 10,7 C 10,6 C 67 % 1031,8 hPa 0,0 l/m 2 min 0 min 524 W/m 14,6 km/h (3 Bft)
13.04.2015 11:28 10,7 C 10,6 C 67 % 1031,8 hPa 0,0 l/m 2 min 0 min 414 W/m 14,6 km/h (3 Bft)
13.04.2015 11:30 10,8 C 10,6 C 66 % 1031,8 hPa 0,0 l/m 0 min 0 min 294 W/m 12,6 km/h (3 Bft)
13.04.2015 11:32 10,8 C 10,6 C 66 % 1031,8 hPa 0,0 l/m 0 min 0 min 310 W/m 8,4 km/h (2 Bft)
13.04.2015 11:34 10,8 C 10,6 C 66 % 1031,8 hPa 0,0 l/m 2 min 0 min 539 W/m 10,5 km/h (2 Bft)
13.04.2015 11:36 10,8 C 10,0 C 64 % 1031,9 hPa 0,0 l/m 2 min 0 min 506 W/m 8,4 km/h (2 Bft)
13.04.2015 11:38 10,8 C 10,6 C 65 % 1031,9 hPa 0,0 l/m 2 min 0 min 667 W/m 10,5 km/h (2 Bft)
13.04.2015 11:40 10,9 C 11,1 C 64 % 1031,9 hPa 0,0 l/m 2 min 0 min 661 W/m 8,4 km/h (2 Bft)
13.04.2015 11:42 11,1 C 11,7 C 65 % 1031,9 hPa 0,0 l/m 2 min 0 min 691 W/m 8,4 km/h (2 Bft)
13.04.2015 11:44 11,2 C 11,7 C 65 % 1031,9 hPa 0,0 l/m 2 min 0 min 656 W/m 14,6 km/h (3 Bft)
13.04.2015 11:46 11,3 C 11,7 C 65 % 1031,8 hPa 0,0 l/m 2 min 0 min 619 W/m 8,4 km/h (2 Bft)
13.04.2015 11:48 11,3 C 11,1 C 64 % 1031,8 hPa 0,0 l/m 2 min 0 min 570 W/m 12,6 km/h (3 Bft)
13.04.2015 11:50 11,4 C 10,6 C 64 % 1031,8 hPa 0,0 l/m 2 min 0 min 624 W/m 6,3 km/h (2 Bft)
13.04.2015 11:52 11,4 C 11,1 C 64 % 1031,8 hPa 0,0 l/m 2 min 0 min 524 W/m 6,3 km/h (2 Bft)
13.04.2015 11:54 11,5 C 11,1 C 64 % 1031,8 hPa 0,0 l/m 2 min 0 min 527 W/m 8,4 km/h (2 Bft)
13.04.2015 11:56 11,6 C 11,7 C 63 % 1031,8 hPa 0,0 l/m 2 min 0 min 602 W/m 8,4 km/h (2 Bft)
13.04.2015 11:58 11,7 C 11,7 C 64 % 1031,9 hPa 0,0 l/m 2 min 0 min 701 W/m 12,6 km/h (3 Bft)
13.04.2015 12:00 11,7 C 11,1 C 63 % 1031,8 hPa 0,0 l/m 2 min 0 min 715 W/m 12,6 km/h (3 Bft)
13.04.2015 12:02 11,7 C 11,1 C 62 % 1031,9 hPa 0,0 l/m 2 min 0 min 615 W/m 10,5 km/h (2 Bft)
13.04.2015 12:06 11,9 C 11,1 C 63 % 1031,8 hPa 0,0 l/m 2 min 0 min 584 W/m 8,4 km/h (2 Bft)
13.04.2015 12:08 11,9 C 11,7 C 62 % 1031,7 hPa 0,0 l/m 2 min 0 min 439 W/m 6,3 km/h (2 Bft)
13.04.2015 12:10 12,0 C 11,7 C 63 % 1031,8 hPa 0,0 l/m 2 min 0 min 644 W/m 16,7 km/h (3 Bft)
13.04.2015 12:12 12,1 C 11,7 C 62 % 1031,7 hPa 0,0 l/m 2 min 0 min 733 W/m 16,7 km/h (3 Bft)
13.04.2015 12:14 12,1 C 11,7 C 62 % 1031,7 hPa 0,0 l/m 2 min 0 min 670 W/m 14,6 km/h (3 Bft)
13.04.2015 12:16 12,2 C 11,7 C 62 % 1031,7 hPa 0,0 l/m 2 min 0 min 589 W/m 16,7 km/h (3 Bft)
13.04.2015 12:18 12,2 C 11,7 C 62 % 1031,7 hPa 0,0 l/m 2 min 0 min 615 W/m 16,7 km/h (3 Bft)
13.04.2015 12:20 12,1 C 11,1 C 61 % 1031,8 hPa 0,0 l/m 2 min 0 min 647 W/m 16,7 km/h (3 Bft)
13.04.2015 12:22 12,1 C 11,1 C 61 % 1031,8 hPa 0,0 l/m 2 min 0 min 672 W/m 12,6 km/h (3 Bft)
13.04.2015 12:24 12,1 C 10,6 C 60 % 1031,8 hPa 0,0 l/m 2 min 0 min 679 W/m 12,6 km/h (3 Bft)
13.04.2015 12:26 12,0 C 11,1 C 61 % 1031,8 hPa 0,0 l/m 2 min 0 min 691 W/m 14,6 km/h (3 Bft)
13.04.2015 12:28 12,0 C 11,1 C 62 % 1031,8 hPa 0,0 l/m 2 min 0 min 660 W/m 10,5 km/h (2 Bft)
13.04.2015 12:30 12,0 C 11,7 C 63 % 1031,8 hPa 0,0 l/m 2 min 0 min 663 W/m 8,4 km/h (2 Bft)
13.04.2015 12:32 12,0 C 11,7 C 62 % 1031,8 hPa 0,0 l/m 2 min 0 min 790 W/m 8,4 km/h (2 Bft)
13.04.2015 12:34 12,1 C 12,2 C 62 % 1031,8 hPa 0,0 l/m 2 min 0 min 814 W/m 10,5 km/h (2 Bft)
13.04.2015 12:36 12,2 C 12,2 C 64 % 1031,9 hPa 0,0 l/m 2 min 0 min 754 W/m 10,5 km/h (2 Bft)
13.04.2015 12:38 12,3 C 12,8 C 66 % 1031,9 hPa 0,0 l/m 2 min 0 min 727 W/m 10,5 km/h (2 Bft)
13.04.2015 12:40 12,5 C 12,8 C 63 % 1031,8 hPa 0,0 l/m 2 min 0 min 701 W/m 14,6 km/h (3 Bft)
13.04.2015 12:42 12,6 C 12,8 C 62 % 1031,8 hPa 0,0 l/m 2 min 0 min 787 W/m 12,6 km/h (3 Bft)
13.04.2015 12:44 12,7 C 13,3 C 62 % 1031,8 hPa 0,0 l/m 2 min 0 min 786 W/m 18,8 km/h (3 Bft)
13.04.2015 12:46 12,8 C 12,8 C 60 % 1031,8 hPa 0,0 l/m 2 min 0 min 766 W/m 10,5 km/h (2 Bft)
13.04.2015 12:48 12,8 C 12,2 C 59 % 1031,8 hPa 0,0 l/m 2 min 0 min 744 W/m 8,4 km/h (2 Bft)
13.04.2015 12:50 12,9 C 12,8 C 60 % 1031,9 hPa 0,0 l/m 2 min 0 min 664 W/m 16,7 km/h (3 Bft)
13.04.2015 12:52 12,9 C 12,2 C 58 % 1031,9 hPa 0,0 l/m 2 min 0 min 688 W/m 18,8 km/h (3 Bft)
13.04.2015 12:54 12,8 C 12,2 C 57 % 1031,8 hPa 0,0 l/m 2 min 0 min 679 W/m 10,5 km/h (2 Bft)
13.04.2015 12:56 12,8 C 12,2 C 58 % 1031,8 hPa 0,0 l/m 2 min 0 min 699 W/m 12,6 km/h (3 Bft)
13.04.2015 12:58 12,7 C 12,2 C 58 % 1031,8 hPa 0,0 l/m 2 min 0 min 646 W/m 12,6 km/h (3 Bft)
13.04.2015 13:00 12,7 C 12,2 C 60 % 1031,8 hPa 0,0 l/m 2 min 0 min 682 W/m 12,6 km/h (3 Bft)
13.04.2015 13:02 12,7 C 12,8 C 59 % 1031,8 hPa 0,0 l/m 2 min 0 min 676 W/m 12,6 km/h (3 Bft)
13.04.2015 13:04 12,7 C 12,8 C 58 % 1031,8 hPa 0,0 l/m 2 min 0 min 729 W/m 8,4 km/h (2 Bft)
13.04.2015 13:06 12,8 C 13,3 C 59 % 1031,8 hPa 0,0 l/m 2 min 0 min 768 W/m 14,6 km/h (3 Bft)
13.04.2015 13:08 12,8 C 13,9 C 59 % 1031,9 hPa 0,0 l/m 2 min 0 min 736 W/m 14,6 km/h (3 Bft)
13.04.2015 13:10 12,9 C 13,9 C 58 % 1031,9 hPa 0,0 l/m 2 min 0 min 693 W/m 14,6 km/h (3 Bft)
13.04.2015 13:12 13,0 C 13,9 C 58 % 1031,8 hPa 0,0 l/m 2 min 0 min 652 W/m 16,7 km/h (3 Bft)
13.04.2015 13:14 13,1 C 13,9 C 58 % 1031,9 hPa 0,0 l/m 2 min 0 min 600 W/m 16,7 km/h (3 Bft)
13.04.2015 13:16 13,2 C 13,9 C 58 % 1031,8 hPa 0,0 l/m 2 min 0 min 609 W/m 14,6 km/h (3 Bft)
13.04.2015 13:18 13,2 C 13,3 C 55 % 1031,8 hPa 0,0 l/m 2 min 0 min 586 W/m 12,6 km/h (3 Bft)
13.04.2015 13:20 13,2 C 12,8 C 55 % 1031,9 hPa 0,0 l/m 2 min 0 min 555 W/m 12,6 km/h (3 Bft)
13.04.2015 13:22 13,1 C 12,8 C 55 % 1031,8 hPa 0,0 l/m 2 min 0 min 558 W/m 8,4 km/h (2 Bft)
13.04.2015 13:24 13,1 C 12,8 C 56 % 1031,7 hPa 0,0 l/m 2 min 0 min 551 W/m 8,4 km/h (2 Bft)
13.04.2015 13:26 13,1 C 12,8 C 55 % 1031,7 hPa 0,0 l/m 2 min 0 min 589 W/m 10,5 km/h (2 Bft)
13.04.2015 13:28 13,0 C 13,3 C 56 % 1031,7 hPa 0,0 l/m 2 min 0 min 538 W/m 14,6 km/h (3 Bft)
13.04.2015 13:30 13,0 C 13,3 C 56 % 1031,7 hPa 0,0 l/m 2 min 0 min 643 W/m 14,6 km/h (3 Bft)
13.04.2015 13:32 13,1 C 13,3 C 57 % 1031,6 hPa 0,0 l/m 2 min 0 min 632 W/m 10,5 km/h (2 Bft)
13.04.2015 13:34 13,1 C 13,3 C 55 % 1031,6 hPa 0,0 l/m 2 min 0 min 552 W/m 12,6 km/h (3 Bft)
13.04.2015 13:36 13,1 C 13,3 C 56 % 1031,6 hPa 0,0 l/m 2 min 0 min 550 W/m 14,6 km/h (3 Bft)
13.04.2015 13:38 13,0 C 12,8 C 55 % 1031,7 hPa 0,0 l/m 2 min 0 min 543 W/m 14,6 km/h (3 Bft)
13.04.2015 13:40 13,0 C 12,8 C 54 % 1031,6 hPa 0,0 l/m 2 min 0 min 549 W/m 16,7 km/h (3 Bft)
13.04.2015 13:42 12,9 C 12,8 C 55 % 1031,6 hPa 0,0 l/m 2 min 0 min 577 W/m 14,6 km/h (3 Bft)
13.04.2015 13:44 12,9 C 12,8 C 55 % 1031,6 hPa 0,0 l/m 2 min 0 min 521 W/m 16,7 km/h (3 Bft)
13.04.2015 13:46 12,8 C 12,8 C 54 % 1031,6 hPa 0,0 l/m 2 min 0 min 550 W/m 18,8 km/h (3 Bft)
13.04.2015 13:48 12,7 C 12,8 C 53 % 1031,6 hPa 0,0 l/m 2 min 0 min 540 W/m 10,5 km/h (2 Bft)
13.04.2015 13:50 12,7 C 13,3 C 55 % 1031,5 hPa 0,0 l/m 2 min 0 min 526 W/m 16,7 km/h (3 Bft)
13.04.2015 13:52 12,7 C 13,3 C 55 % 1031,6 hPa 0,0 l/m 2 min 0 min 527 W/m 16,7 km/h (3 Bft)
13.04.2015 13:54 12,7 C 13,3 C 55 % 1031,6 hPa 0,0 l/m 2 min 0 min 529 W/m 12,6 km/h (3 Bft)
13.04.2015 13:56 12,8 C 13,3 C 55 % 1031,5 hPa 0,0 l/m 2 min 0 min 539 W/m 10,5 km/h (2 Bft)
13.04.2015 13:58 12,8 C 13,9 C 55 % 1031,6 hPa 0,0 l/m 2 min 0 min 532 W/m 20,9 km/h (4 Bft)
13.04.2015 14:00 12,8 C 13,9 C 55 % 1031,5 hPa 0,0 l/m 2 min 0 min 515 W/m 16,7 km/h (3 Bft)
13.04.2015 14:02 12,8 C 13,9 C 55 % 1031,5 hPa 0,0 l/m 2 min 0 min 532 W/m 10,5 km/h (2 Bft)
13.04.2015 14:04 12,9 C 13,3 C 54 % 1031,5 hPa 0,0 l/m 2 min 0 min 548 W/m 8,4 km/h (2 Bft)
13.04.2015 14:06 12,9 C 13,9 C 55 % 1031,5 hPa 0,0 l/m 2 min 0 min 566 W/m 6,3 km/h (2 Bft)
13.04.2015 14:08 13,0 C 13,9 C 55 % 1031,5 hPa 0,0 l/m 2 min 0 min 588 W/m 6,3 km/h (2 Bft)
13.04.2015 14:10 13,0 C 13,9 C 55 % 1031,5 hPa 0,0 l/m 2 min 0 min 578 W/m 12,6 km/h (3 Bft)
13.04.2015 14:12 13,0 C 13,9 C 54 % 1031,5 hPa 0,0 l/m 2 min 0 min 574 W/m 12,6 km/h (3 Bft)
13.04.2015 14:14 13,1 C 13,9 C 54 % 1031,5 hPa 0,0 l/m 2 min 0 min 523 W/m 10,5 km/h (2 Bft)
13.04.2015 14:16 13,1 C 13,9 C 56 % 1031,5 hPa 0,0 l/m 2 min 0 min 548 W/m 12,6 km/h (3 Bft)
13.04.2015 14:18 13,2 C 13,9 C 56 % 1031,4 hPa 0,0 l/m 2 min 0 min 586 W/m 16,7 km/h (3 Bft)
13.04.2015 14:20 13,2 C 14,4 C 55 % 1031,4 hPa 0,0 l/m 2 min 0 min 630 W/m 12,6 km/h (3 Bft)
13.04.2015 14:22 13,3 C 13,9 C 54 % 1031,5 hPa 0,0 l/m 2 min 0 min 626 W/m 16,7 km/h (3 Bft)
13.04.2015 14:24 13,3 C 14,4 C 54 % 1031,5 hPa 0,0 l/m 2 min 0 min 649 W/m 16,7 km/h (3 Bft)
13.04.2015 14:26 13,4 C 14,4 C 54 % 1031,5 hPa 0,0 l/m 2 min 0 min 649 W/m 12,6 km/h (3 Bft)
13.04.2015 14:28 13,4 C 15,0 C 55 % 1031,5 hPa 0,0 l/m 2 min 0 min 642 W/m 12,6 km/h (3 Bft)
13.04.2015 14:30 13,4 C 15,0 C 55 % 1031,6 hPa 0,0 l/m 2 min 0 min 447 W/m 14,6 km/h (3 Bft)
13.04.2015 14:32 13,5 C 15,0 C 55 % 1031,5 hPa 0,0 l/m 2 min 0 min 512 W/m 18,8 km/h (3 Bft)
13.04.2015 14:34 13,6 C 15,0 C 54 % 1031,5 hPa 0,0 l/m 2 min 0 min 508 W/m 10,5 km/h (2 Bft)
13.04.2015 14:36 13,6 C 15,0 C 54 % 1031,5 hPa 0,0 l/m 2 min 0 min 491 W/m 14,6 km/h (3 Bft)
13.04.2015 14:38 13,6 C 15,0 C 54 % 1031,5 hPa 0,0 l/m 2 min 0 min 464 W/m 10,5 km/h (2 Bft)
13.04.2015 14:40 13,6 C 14,4 C 53 % 1031,5 hPa 0,0 l/m 2 min 0 min 498 W/m 12,6 km/h (3 Bft)
13.04.2015 14:42 13,6 C 13,9 C 53 % 1031,5 hPa 0,0 l/m 2 min 0 min 445 W/m 16,7 km/h (3 Bft)
13.04.2015 14:44 13,6 C 14,4 C 53 % 1031,5 hPa 0,0 l/m 2 min 0 min 406 W/m 18,8 km/h (3 Bft)
13.04.2015 14:46 13,6 C 15,0 C 54 % 1031,5 hPa 0,0 l/m 2 min 0 min 431 W/m 10,5 km/h (2 Bft)
13.04.2015 14:48 13,6 C 15,0 C 54 % 1031,5 hPa 0,0 l/m 2 min 0 min 460 W/m 10,5 km/h (2 Bft)
13.04.2015 14:50 13,6 C 15,0 C 53 % 1031,5 hPa 0,0 l/m 2 min 0 min 469 W/m 12,6 km/h (3 Bft)
13.04.2015 14:52 13,6 C 15,0 C 53 % 1031,5 hPa 0,0 l/m 2 min 0 min 461 W/m 14,6 km/h (3 Bft)
13.04.2015 14:54 13,6 C 15,0 C 53 % 1031,5 hPa 0,0 l/m 2 min 0 min 471 W/m 12,6 km/h (3 Bft)
13.04.2015 14:56 13,6 C 15,0 C 54 % 1031,5 hPa 0,0 l/m 2 min 0 min 415 W/m 8,4 km/h (2 Bft)
13.04.2015 14:58 13,6 C 15,0 C 54 % 1031,4 hPa 0,0 l/m 2 min 0 min 436 W/m 18,8 km/h (3 Bft)
13.04.2015 15:00 13,6 C 15,6 C 55 % 1031,5 hPa 0,0 l/m 2 min 0 min 473 W/m 20,9 km/h (4 Bft)
13.04.2015 15:02 13,6 C 15,0 C 55 % 1031,4 hPa 0,0 l/m 2 min 0 min 376 W/m 14,6 km/h (3 Bft)
13.04.2015 15:04 13,5 C 15,0 C 53 % 1031,4 hPa 0,0 l/m 2 min 0 min 507 W/m 10,5 km/h (2 Bft)
13.04.2015 15:06 13,5 C 15,6 C 53 % 1031,4 hPa 0,0 l/m 2 min 0 min 518 W/m 12,6 km/h (3 Bft)
13.04.2015 15:08 13,4 C 15,6 C 54 % 1031,5 hPa 0,0 l/m 2 min 0 min 462 W/m 18,8 km/h (3 Bft)
13.04.2015 15:10 13,5 C 16,7 C 55 % 1031,4 hPa 0,0 l/m 2 min 0 min 490 W/m 10,5 km/h (2 Bft)
13.04.2015 15:12 13,5 C 16,7 C 54 % 1031,4 hPa 0,0 l/m 2 min 0 min 427 W/m 12,6 km/h (3 Bft)
13.04.2015 15:14 13,6 C 17,2 C 54 % 1031,4 hPa 0,0 l/m 2 min 0 min 569 W/m 10,5 km/h (2 Bft)
13.04.2015 15:16 13,6 C 17,2 C 54 % 1031,4 hPa 0,0 l/m 2 min 0 min 492 W/m 10,5 km/h (2 Bft)
13.04.2015 15:18 13,7 C 16,7 C 55 % 1031,3 hPa 0,0 l/m 2 min 0 min 416 W/m 8,4 km/h (2 Bft)
13.04.2015 15:20 13,7 C 17,8 C 55 % 1031,2 hPa 0,0 l/m 2 min 0 min 438 W/m 10,5 km/h (2 Bft)
13.04.2015 15:22 13,8 C 18,3 C 54 % 1031,2 hPa 0,0 l/m 2 min 0 min 634 W/m 10,5 km/h (2 Bft)
13.04.2015 15:24 13,8 C 18,3 C 53 % 1031,1 hPa 0,0 l/m 2 min 0 min 660 W/m 14,6 km/h (3 Bft)
13.04.2015 15:26 13,9 C 18,9 C 53 % 1031,2 hPa 0,0 l/m 2 min 0 min 658 W/m 14,6 km/h (3 Bft)
13.04.2015 15:28 13,9 C 18,9 C 52 % 1031,2 hPa 0,0 l/m 2 min 0 min 578 W/m 12,6 km/h (3 Bft)
13.04.2015 15:30 14,0 C 18,9 C 54 % 1031,3 hPa 0,0 l/m 2 min 0 min 550 W/m 18,8 km/h (3 Bft)
13.04.2015 15:32 14,2 C 19,4 C 54 % 1031,2 hPa 0,0 l/m 2 min 0 min 600 W/m 14,6 km/h (3 Bft)
13.04.2015 15:34 14,2 C 19,4 C 53 % 1031,2 hPa 0,0 l/m 2 min 0 min 675 W/m 12,6 km/h (3 Bft)
13.04.2015 15:36 14,2 C 18,3 C 52 % 1031,2 hPa 0,0 l/m 2 min 0 min 551 W/m 14,6 km/h (3 Bft)
13.04.2015 15:38 14,2 C 18,3 C 51 % 1031,2 hPa 0,0 l/m 2 min 0 min 495 W/m 18,8 km/h (3 Bft)
13.04.2015 15:40 14,2 C 18,3 C 51 % 1031,2 hPa 0,0 l/m 2 min 0 min 538 W/m 16,7 km/h (3 Bft)
13.04.2015 15:42 14,2 C 18,9 C 51 % 1031,2 hPa 0,0 l/m 2 min 0 min 647 W/m 10,5 km/h (2 Bft)
13.04.2015 15:44 14,2 C 19,4 C 51 % 1031,1 hPa 0,0 l/m 2 min 0 min 656 W/m 14,6 km/h (3 Bft)
13.04.2015 15:46 14,2 C 20,0 C 51 % 1031,0 hPa 0,0 l/m 2 min 0 min 619 W/m 18,8 km/h (3 Bft)
13.04.2015 15:48 14,2 C 20,0 C 51 % 1031,0 hPa 0,0 l/m 2 min 0 min 638 W/m 23,0 km/h (4 Bft)
13.04.2015 15:50 14,2 C 20,0 C 51 % 1031,0 hPa 0,0 l/m 2 min 0 min 647 W/m 27,2 km/h (4 Bft)
13.04.2015 15:52 14,2 C 20,0 C 52 % 1031,0 hPa 0,0 l/m 2 min 0 min 524 W/m 25,1 km/h (4 Bft)
13.04.2015 15:54 14,2 C 18,9 C 48 % 1031,0 hPa 0,0 l/m 2 min 0 min 478 W/m 14,6 km/h (3 Bft)
13.04.2015 15:56 14,2 C 19,4 C 48 % 1031,0 hPa 0,0 l/m 2 min 0 min 510 W/m 14,6 km/h (3 Bft)
13.04.2015 15:58 14,2 C 19,4 C 48 % 1031,0 hPa 0,0 l/m 2 min 0 min 646 W/m 10,5 km/h (2 Bft)
13.04.2015 16:00 14,2 C 20,6 C 51 % 1031,1 hPa 0,0 l/m 2 min 0 min 642 W/m 16,7 km/h (3 Bft)
13.04.2015 16:02 14,3 C 21,1 C 50 % 1031,1 hPa 0,0 l/m 2 min 0 min 643 W/m 20,9 km/h (4 Bft)
13.04.2015 16:04 14,3 C 20,6 C 50 % 1031,0 hPa 0,0 l/m 2 min 0 min 642 W/m 23,0 km/h (4 Bft)
13.04.2015 16:06 14,3 C 21,1 C 52 % 1031,0 hPa 0,0 l/m 2 min 0 min 646 W/m 18,8 km/h (3 Bft)
13.04.2015 16:08 14,4 C 22,2 C 50 % 1031,0 hPa 0,0 l/m 2 min 0 min 659 W/m 14,6 km/h (3 Bft)
13.04.2015 16:10 14,4 C 22,8 C 48 % 1031,0 hPa 0,0 l/m 2 min 0 min 647 W/m 10,5 km/h (2 Bft)
13.04.2015 16:12 14,6 C 22,2 C 49 % 1030,9 hPa 0,0 l/m 2 min 0 min 623 W/m 14,6 km/h (3 Bft)
13.04.2015 16:14 14,6 C 21,1 C 49 % 1030,8 hPa 0,0 l/m 2 min 0 min 596 W/m 12,6 km/h (3 Bft)
13.04.2015 16:16 14,7 C 21,1 C 50 % 1030,8 hPa 0,0 l/m 2 min 0 min 514 W/m 16,7 km/h (3 Bft)
13.04.2015 16:18 14,7 C 20,6 C 49 % 1030,8 hPa 0,0 l/m 2 min 0 min 533 W/m 20,9 km/h (4 Bft)
13.04.2015 16:20 14,7 C 20,6 C 49 % 1030,7 hPa 0,0 l/m 2 min 0 min 486 W/m 18,8 km/h (3 Bft)
13.04.2015 16:22 14,7 C 20,6 C 48 % 1030,8 hPa 0,0 l/m 2 min 0 min 501 W/m 23,0 km/h (4 Bft)
13.04.2015 16:24 14,7 C 20,0 C 49 % 1030,6 hPa 0,0 l/m 2 min 0 min 446 W/m 14,6 km/h (3 Bft)
13.04.2015 16:26 14,7 C 20,6 C 49 % 1030,6 hPa 0,0 l/m 2 min 0 min 499 W/m 16,7 km/h (3 Bft)
13.04.2015 16:28 14,7 C 20,6 C 49 % 1030,6 hPa 0,0 l/m 2 min 0 min 511 W/m 12,6 km/h (3 Bft)
13.04.2015 16:30 14,7 C 20,6 C 49 % 1030,6 hPa 0,0 l/m 2 min 0 min 512 W/m 10,5 km/h (2 Bft)
13.04.2015 16:32 14,8 C 20,6 C 50 % 1030,6 hPa 0,0 l/m 2 min 0 min 496 W/m 12,6 km/h (3 Bft)
13.04.2015 16:34 14,8 C 20,6 C 49 % 1030,6 hPa 0,0 l/m 2 min 0 min 530 W/m 14,6 km/h (3 Bft)
13.04.2015 16:36 14,8 C 20,6 C 48 % 1030,5 hPa 0,0 l/m 2 min 0 min 522 W/m 12,6 km/h (3 Bft)
13.04.2015 16:38 14,8 C 21,1 C 48 % 1030,5 hPa 0,0 l/m 2 min 0 min 502 W/m 10,5 km/h (2 Bft)
13.04.2015 16:40 14,8 C 21,1 C 49 % 1030,5 hPa 0,0 l/m 2 min 0 min 503 W/m 16,7 km/h (3 Bft)
13.04.2015 16:42 14,8 C 20,6 C 48 % 1030,5 hPa 0,0 l/m 2 min 0 min 500 W/m 12,6 km/h (3 Bft)
13.04.2015 16:44 14,8 C 20,6 C 48 % 1030,5 hPa 0,0 l/m 2 min 0 min 473 W/m 10,5 km/h (2 Bft)
13.04.2015 16:46 14,8 C 20,0 C 48 % 1030,5 hPa 0,0 l/m 2 min 0 min 412 W/m 12,6 km/h (3 Bft)
13.04.2015 16:48 14,8 C 18,9 C 48 % 1030,5 hPa 0,0 l/m 2 min 0 min 423 W/m 18,8 km/h (3 Bft)
13.04.2015 16:50 14,8 C 18,3 C 49 % 1030,5 hPa 0,0 l/m 2 min 0 min 440 W/m 14,6 km/h (3 Bft)
13.04.2015 16:52 14,8 C 17,8 C 49 % 1030,5 hPa 0,0 l/m 2 min 0 min 452 W/m 20,9 km/h (4 Bft)
13.04.2015 16:54 14,8 C 16,7 C 49 % 1030,5 hPa 0,0 l/m 2 min 0 min 351 W/m 16,7 km/h (3 Bft)
13.04.2015 16:56 14,8 C 16,7 C 50 % 1030,5 hPa 0,0 l/m 0 min 0 min 234 W/m 14,6 km/h (3 Bft)
13.04.2015 16:58 14,7 C 15,6 C 49 % 1030,5 hPa 0,0 l/m 2 min 0 min 364 W/m 12,6 km/h (3 Bft)
13.04.2015 17:00 14,7 C 16,1 C 48 % 1030,5 hPa 0,0 l/m 2 min 0 min 446 W/m 18,8 km/h (3 Bft)
13.04.2015 17:02 14,6 C 16,7 C 49 % 1030,5 hPa 0,0 l/m 2 min 0 min 453 W/m 16,7 km/h (3 Bft)
13.04.2015 17:04 14,6 C 16,7 C 49 % 1030,5 hPa 0,0 l/m 2 min 0 min 425 W/m 18,8 km/h (3 Bft)
13.04.2015 17:06 14,5 C 17,2 C 49 % 1030,5 hPa 0,0 l/m 2 min 0 min 393 W/m 20,9 km/h (4 Bft)
13.04.2015 17:08 14,5 C 16,7 C 49 % 1030,5 hPa 0,0 l/m 2 min 0 min 424 W/m 23,0 km/h (4 Bft)
13.04.2015 17:10 14,4 C 16,7 C 50 % 1030,5 hPa 0,0 l/m 2 min 0 min 389 W/m 18,8 km/h (3 Bft)
13.04.2015 17:12 14,4 C 16,7 C 50 % 1030,5 hPa 0,0 l/m 2 min 0 min 381 W/m 16,7 km/h (3 Bft)
13.04.2015 17:14 14,4 C 16,7 C 49 % 1030,4 hPa 0,0 l/m 2 min 0 min 360 W/m 16,7 km/h (3 Bft)
13.04.2015 17:16 14,4 C 16,7 C 49 % 1030,4 hPa 0,0 l/m 2 min 0 min 382 W/m 14,6 km/h (3 Bft)
13.04.2015 17:18 14,4 C 17,2 C 49 % 1030,4 hPa 0,0 l/m 2 min 0 min 428 W/m 18,8 km/h (3 Bft)
13.04.2015 17:20 14,4 C 16,1 C 48 % 1030,4 hPa 0,0 l/m 2 min 0 min 374 W/m 16,7 km/h (3 Bft)
13.04.2015 17:22 14,3 C 15,6 C 49 % 1030,4 hPa 0,0 l/m 2 min 0 min 331 W/m 14,6 km/h (3 Bft)
13.04.2015 17:24 14,2 C 15,6 C 48 % 1030,4 hPa 0,0 l/m 2 min 0 min 357 W/m 14,6 km/h (3 Bft)
13.04.2015 17:26 14,2 C 15,6 C 48 % 1030,3 hPa 0,0 l/m 2 min 0 min 378 W/m 16,7 km/h (3 Bft)
13.04.2015 17:28 14,2 C 15,6 C 49 % 1030,3 hPa 0,0 l/m 2 min 0 min 381 W/m 16,7 km/h (3 Bft)
13.04.2015 17:30 14,2 C 15,0 C 49 % 1030,3 hPa 0,0 l/m 2 min 0 min 375 W/m 16,7 km/h (3 Bft)
13.04.2015 17:32 14,2 C 15,0 C 50 % 1030,3 hPa 0,0 l/m 2 min 0 min 393 W/m 18,8 km/h (3 Bft)
13.04.2015 17:34 14,2 C 15,0 C 49 % 1030,3 hPa 0,0 l/m 2 min 0 min 392 W/m 10,5 km/h (2 Bft)
13.04.2015 17:36 14,2 C 14,4 C 48 % 1030,3 hPa 0,0 l/m 2 min 0 min 369 W/m 10,5 km/h (2 Bft)
13.04.2015 17:38 14,2 C 14,4 C 49 % 1030,3 hPa 0,0 l/m 2 min 0 min 351 W/m 10,5 km/h (2 Bft)
13.04.2015 17:40 14,2 C 14,4 C 49 % 1030,3 hPa 0,0 l/m 2 min 0 min 350 W/m 14,6 km/h (3 Bft)
13.04.2015 17:42 14,2 C 13,9 C 48 % 1030,2 hPa 0,0 l/m 2 min 0 min 301 W/m 16,7 km/h (3 Bft)
13.04.2015 17:44 14,2 C 14,4 C 50 % 1030,2 hPa 0,0 l/m 2 min 0 min 322 W/m 8,4 km/h (2 Bft)
13.04.2015 17:46 14,2 C 14,4 C 50 % 1030,2 hPa 0,0 l/m 2 min 0 min 289 W/m 12,6 km/h (3 Bft)
13.04.2015 17:48 14,2 C 13,9 C 49 % 1030,1 hPa 0,0 l/m 2 min 0 min 238 W/m 16,7 km/h (3 Bft)
13.04.2015 17:50 14,2 C 13,9 C 49 % 1030,1 hPa 0,0 l/m 2 min 0 min 247 W/m 14,6 km/h (3 Bft)
13.04.2015 17:52 14,2 C 13,3 C 49 % 1030,1 hPa 0,0 l/m 2 min 0 min 203 W/m 18,8 km/h (3 Bft)
13.04.2015 17:54 14,2 C 13,3 C 48 % 1030,2 hPa 0,0 l/m 0 min 0 min 189 W/m 16,7 km/h (3 Bft)
13.04.2015 17:56 14,2 C 13,3 C 48 % 1030,2 hPa 0,0 l/m 2 min 0 min 266 W/m 16,7 km/h (3 Bft)
13.04.2015 17:58 14,2 C 13,3 C 48 % 1030,2 hPa 0,0 l/m 2 min 0 min 304 W/m 16,7 km/h (3 Bft)
13.04.2015 18:00 14,1 C 13,3 C 49 % 1030,2 hPa 0,0 l/m 2 min 0 min 305 W/m 16,7 km/h (3 Bft)
13.04.2015 18:02 13,9 C 12,8 C 48 % 1030,2 hPa 0,0 l/m 2 min 0 min 272 W/m 18,8 km/h (3 Bft)
13.04.2015 18:06 13,9 C 13,3 C 50 % 1030,1 hPa 0,0 l/m 2 min 0 min 270 W/m 16,7 km/h (3 Bft)
13.04.2015 18:08 13,8 C 13,3 C 50 % 1030,1 hPa 0,0 l/m 2 min 0 min 255 W/m 16,7 km/h (3 Bft)
13.04.2015 18:10 13,8 C 13,3 C 51 % 1030,1 hPa 0,0 l/m 2 min 0 min 252 W/m 12,6 km/h (3 Bft)
13.04.2015 18:12 13,8 C 13,3 C 50 % 1030,1 hPa 0,0 l/m 2 min 0 min 245 W/m 12,6 km/h (3 Bft)
13.04.2015 18:14 13,8 C 13,3 C 50 % 1030,1 hPa 0,0 l/m 2 min 0 min 248 W/m 10,5 km/h (2 Bft)
13.04.2015 18:16 13,8 C 13,3 C 50 % 1030,1 hPa 0,0 l/m 2 min 0 min 238 W/m 14,6 km/h (3 Bft)
13.04.2015 18:18 13,8 C 13,3 C 50 % 1030,1 hPa 0,0 l/m 2 min 0 min 249 W/m 10,5 km/h (2 Bft)
13.04.2015 18:20 13,8 C 12,8 C 49 % 1030,0 hPa 0,0 l/m 2 min 0 min 205 W/m 14,6 km/h (3 Bft)
13.04.2015 18:22 13,8 C 13,3 C 50 % 1030,0 hPa 0,0 l/m 2 min 0 min 221 W/m 6,3 km/h (2 Bft)
13.04.2015 18:24 13,7 C 12,8 C 50 % 1030,0 hPa 0,0 l/m 2 min 0 min 222 W/m 10,5 km/h (2 Bft)
13.04.2015 18:26 13,7 C 12,8 C 51 % 1030,0 hPa 0,0 l/m 2 min 0 min 201 W/m 12,6 km/h (3 Bft)
13.04.2015 18:28 13,7 C 12,8 C 51 % 1030,0 hPa 0,0 l/m 2 min 0 min 196 W/m 10,5 km/h (2 Bft)
13.04.2015 18:30 13,7 C 12,8 C 51 % 1030,1 hPa 0,0 l/m 2 min 0 min 183 W/m 10,5 km/h (2 Bft)
13.04.2015 18:32 13,8 C 12,8 C 51 % 1030,1 hPa 0,0 l/m 2 min 0 min 168 W/m 12,6 km/h (3 Bft)
13.04.2015 18:34 13,7 C 12,8 C 51 % 1030,0 hPa 0,0 l/m 2 min 0 min 160 W/m 12,6 km/h (3 Bft)
13.04.2015 18:36 13,7 C 12,8 C 50 % 1030,0 hPa 0,0 l/m 2 min 0 min 168 W/m 18,8 km/h (3 Bft)
13.04.2015 18:38 13,7 C 12,8 C 50 % 1029,9 hPa 0,0 l/m 2 min 0 min 177 W/m 16,7 km/h (3 Bft)
13.04.2015 18:40 13,7 C 12,8 C 51 % 1029,9 hPa 0,0 l/m 2 min 0 min 172 W/m 10,5 km/h (2 Bft)
13.04.2015 18:42 13,7 C 12,8 C 51 % 1030,0 hPa 0,0 l/m 2 min 0 min 169 W/m 12,6 km/h (3 Bft)
13.04.2015 18:44 13,7 C 12,8 C 50 % 1029,9 hPa 0,0 l/m 2 min 0 min 164 W/m 12,6 km/h (3 Bft)
13.04.2015 18:46 13,7 C 12,8 C 50 % 1029,9 hPa 0,0 l/m 2 min 0 min 160 W/m 12,6 km/h (3 Bft)
13.04.2015 18:48 13,7 C 12,8 C 51 % 1029,9 hPa 0,0 l/m 2 min 0 min 154 W/m 8,4 km/h (2 Bft)
13.04.2015 18:50 13,7 C 12,2 C 51 % 1029,9 hPa 0,0 l/m 2 min 0 min 151 W/m 10,5 km/h (2 Bft)
13.04.2015 18:52 13,7 C 12,2 C 52 % 1029,9 hPa 0,0 l/m 2 min 0 min 143 W/m 12,6 km/h (3 Bft)
13.04.2015 18:54 13,6 C 12,2 C 50 % 1029,9 hPa 0,0 l/m 2 min 0 min 142 W/m 14,6 km/h (3 Bft)
13.04.2015 18:56 13,6 C 12,2 C 52 % 1029,9 hPa 0,0 l/m 2 min 0 min 148 W/m 14,6 km/h (3 Bft)
13.04.2015 18:58 13,6 C 12,2 C 51 % 1029,9 hPa 0,0 l/m 2 min 0 min 145 W/m 10,5 km/h (2 Bft)
13.04.2015 19:00 13,6 C 12,2 C 52 % 1029,9 hPa 0,0 l/m 2 min 0 min 132 W/m 10,5 km/h (2 Bft)
13.04.2015 19:02 13,6 C 12,2 C 52 % 1029,8 hPa 0,0 l/m 2 min 0 min 122 W/m 10,5 km/h (2 Bft)
13.04.2015 19:04 13,6 C 12,2 C 52 % 1029,8 hPa 0,0 l/m 2 min 0 min 126 W/m 6,3 km/h (2 Bft)
13.04.2015 19:06 13,6 C 12,2 C 52 % 1029,8 hPa 0,0 l/m 2 min 0 min 129 W/m 6,3 km/h (2 Bft)
13.04.2015 19:08 13,6 C 12,2 C 52 % 1029,8 hPa 0,0 l/m 2 min 0 min 121 W/m 8,4 km/h (2 Bft)
13.04.2015 19:10 13,5 C 12,2 C 51 % 1029,8 hPa 0,0 l/m 2 min 0 min 123 W/m 8,4 km/h (2 Bft)
13.04.2015 19:12 13,5 C 12,2 C 51 % 1029,9 hPa 0,0 l/m 2 min 0 min 120 W/m 4,2 km/h (1 Bft)
13.04.2015 19:14 13,5 C 11,7 C 51 % 1029,9 hPa 0,0 l/m 2 min 0 min 110 W/m 6,3 km/h (2 Bft)
13.04.2015 19:16 13,4 C 11,7 C 51 % 1029,8 hPa 0,0 l/m 2 min 0 min 94 W/m 12,6 km/h (3 Bft)
13.04.2015 19:18 13,4 C 11,7 C 51 % 1029,8 hPa 0,0 l/m 2 min 0 min 84 W/m 12,6 km/h (3 Bft)
13.04.2015 19:20 13,4 C 11,7 C 51 % 1029,8 hPa 0,0 l/m 2 min 0 min 82 W/m 10,5 km/h (2 Bft)
13.04.2015 19:22 13,3 C 11,7 C 51 % 1029,8 hPa 0,0 l/m 0 min 0 min 76 W/m 10,5 km/h (2 Bft)
13.04.2015 19:24 13,3 C 11,7 C 52 % 1029,8 hPa 0,0 l/m 0 min 0 min 72 W/m 8,4 km/h (2 Bft)
13.04.2015 19:26 13,3 C 11,7 C 52 % 1029,8 hPa 0,0 l/m 0 min 0 min 68 W/m 8,4 km/h (2 Bft)
13.04.2015 19:28 13,2 C 11,1 C 52 % 1029,8 hPa 0,0 l/m 0 min 0 min 65 W/m 4,2 km/h (1 Bft)
13.04.2015 19:30 13,2 C 11,1 C 53 % 1029,8 hPa 0,0 l/m 0 min 0 min 63 W/m 6,3 km/h (2 Bft)
13.04.2015 19:32 13,2 C 11,1 C 53 % 1029,8 hPa 0,0 l/m 0 min 0 min 60 W/m 6,3 km/h (2 Bft)
13.04.2015 19:34 13,2 C 11,1 C 53 % 1029,8 hPa 0,0 l/m 0 min 0 min 58 W/m 8,4 km/h (2 Bft)
13.04.2015 19:36 13,1 C 11,1 C 53 % 1029,7 hPa 0,0 l/m 0 min 0 min 56 W/m 6,3 km/h (2 Bft)
13.04.2015 19:38 13,1 C 11,1 C 53 % 1029,7 hPa 0,0 l/m 0 min 0 min 54 W/m 8,4 km/h (2 Bft)
13.04.2015 19:40 13,1 C 11,1 C 53 % 1029,7 hPa 0,0 l/m 0 min 0 min 51 W/m 8,4 km/h (2 Bft)
13.04.2015 19:42 13,0 C 11,1 C 53 % 1029,8 hPa 0,0 l/m 0 min 0 min 47 W/m 10,5 km/h (2 Bft)
13.04.2015 19:44 12,9 C 11,1 C 54 % 1029,7 hPa 0,0 l/m 0 min 0 min 45 W/m 8,4 km/h (2 Bft)
13.04.2015 19:46 12,9 C 10,6 C 53 % 1029,7 hPa 0,0 l/m 0 min 0 min 41 W/m 6,3 km/h (2 Bft)
13.04.2015 19:48 12,9 C 10,6 C 53 % 1029,6 hPa 0,0 l/m 0 min 0 min 39 W/m 12,6 km/h (3 Bft)
13.04.2015 19:50 12,8 C 10,6 C 53 % 1029,7 hPa 0,0 l/m 0 min 0 min 37 W/m 10,5 km/h (2 Bft)
13.04.2015 19:52 12,8 C 10,6 C 54 % 1029,6 hPa 0,0 l/m 0 min 0 min 35 W/m 4,2 km/h (1 Bft)
13.04.2015 19:54 12,8 C 10,6 C 54 % 1029,7 hPa 0,0 l/m 0 min 0 min 33 W/m 4,2 km/h (1 Bft)
13.04.2015 19:56 12,7 C 10,0 C 54 % 1029,7 hPa 0,0 l/m 0 min 0 min 30 W/m 4,2 km/h (1 Bft)
13.04.2015 19:58 12,7 C 10,0 C 55 % 1029,7 hPa 0,0 l/m 0 min 0 min 28 W/m 4,2 km/h (1 Bft)
13.04.2015 20:00 12,7 C 10,0 C 55 % 1029,7 hPa 0,0 l/m 0 min 0 min 26 W/m 8,4 km/h (2 Bft)
13.04.2015 20:02 12,6 C 10,0 C 55 % 1029,7 hPa 0,0 l/m 2 min 0 min 25 W/m 8,4 km/h (2 Bft)
13.04.2015 20:04 12,6 C 10,0 C 55 % 1029,7 hPa 0,0 l/m 2 min 0 min 22 W/m 8,4 km/h (2 Bft)
13.04.2015 20:06 12,5 C 10,0 C 55 % 1029,7 hPa 0,0 l/m 2 min 0 min 20 W/m 8,4 km/h (2 Bft)
13.04.2015 20:08 12,4 C 10,0 C 55 % 1029,6 hPa 0,0 l/m 2 min 0 min 18 W/m 6,3 km/h (2 Bft)
13.04.2015 20:10 12,4 C 10,0 C 56 % 1029,7 hPa 0,0 l/m 2 min 0 min 17 W/m 8,4 km/h (2 Bft)
13.04.2015 20:12 12,3 C 10,0 C 56 % 1029,7 hPa 0,0 l/m 2 min 0 min 15 W/m 4,2 km/h (1 Bft)
13.04.2015 20:14 12,2 C 10,0 C 56 % 1029,7 hPa 0,0 l/m 2 min 0 min 12 W/m 6,3 km/h (2 Bft)
13.04.2015 20:16 12,2 C 10,0 C 57 % 1029,7 hPa 0,0 l/m 0 min 0 min 11 W/m 6,3 km/h (2 Bft)
13.04.2015 20:18 12,1 C 9,4 C 57 % 1029,7 hPa 0,0 l/m 0 min 0 min 10 W/m 6,3 km/h (2 Bft)
13.04.2015 20:20 12,1 C 9,4 C 57 % 1029,7 hPa 0,0 l/m 0 min 0 min 7 W/m 6,3 km/h (2 Bft)
13.04.2015 20:22 12,1 C 9,4 C 58 % 1029,8 hPa 0,0 l/m 0 min 0 min 6 W/m 4,2 km/h (1 Bft)
13.04.2015 20:24 12,0 C 9,4 C 58 % 1029,8 hPa 0,0 l/m 0 min 0 min 5 W/m 6,3 km/h (2 Bft)
13.04.2015 20:26 11,9 C 8,9 C 58 % 1029,8 hPa 0,0 l/m 0 min 0 min 5 W/m 4,2 km/h (1 Bft)
13.04.2015 20:28 11,9 C 8,9 C 58 % 1029,8 hPa 0,0 l/m 0 min 0 min 0 W/m 4,2 km/h (1 Bft)
13.04.2015 20:30 11,8 C 8,9 C 58 % 1029,9 hPa 0,0 l/m 0 min 0 min 0 W/m 6,3 km/h (2 Bft)
13.04.2015 20:32 11,8 C 8,9 C 59 % 1029,9 hPa 0,0 l/m 0 min 0 min 0 W/m 6,3 km/h (2 Bft)
13.04.2015 20:34 11,7 C 8,9 C 59 % 1029,9 hPa 0,0 l/m 0 min 0 min 0 W/m 4,2 km/h (1 Bft)
13.04.2015 20:36 11,6 C 8,9 C 59 % 1029,9 hPa 0,0 l/m 0 min 0 min 0 W/m 4,2 km/h (1 Bft)
13.04.2015 20:38 11,6 C 8,3 C 60 % 1029,8 hPa 0,0 l/m 0 min 0 min 0 W/m 4,2 km/h (1 Bft)
13.04.2015 20:40 11,5 C 8,3 C 60 % 1029,8 hPa 0,0 l/m 0 min 0 min 0 W/m 2,1 km/h (1 Bft)
13.04.2015 20:42 11,4 C 8,3 C 60 % 1029,8 hPa 0,0 l/m 0 min 0 min 0 W/m 4,2 km/h (1 Bft)
13.04.2015 20:44 11,4 C 7,8 C 60 % 1029,8 hPa 0,0 l/m 0 min 0 min 0 W/m 4,2 km/h (1 Bft)
13.04.2015 20:46 11,3 C 7,8 C 61 % 1029,8 hPa 0,0 l/m 0 min 0 min 0 W/m 2,1 km/h (1 Bft)
13.04.2015 20:48 11,3 C 7,8 C 61 % 1029,9 hPa 0,0 l/m 0 min 0 min 0 W/m 2,1 km/h (1 Bft)
13.04.2015 20:50 11,2 C 7,2 C 61 % 1029,9 hPa 0,0 l/m 0 min 0 min 0 W/m 2,1 km/h (1 Bft)
13.04.2015 20:52 11,2 C 7,2 C 61 % 1029,9 hPa 0,0 l/m 0 min 0 min 0 W/m 2,1 km/h (1 Bft)
13.04.2015 20:54 11,1 C 7,2 C 61 % 1030,0 hPa 0,0 l/m 0 min 0 min 0 W/m 2,1 km/h (1 Bft)
13.04.2015 20:56 11,0 C 7,2 C 62 % 1030,1 hPa 0,0 l/m 0 min 0 min 0 W/m 2,1 km/h (1 Bft)
13.04.2015 20:58 10,9 C 6,7 C 62 % 1030,0 hPa 0,0 l/m 0 min 0 min 0 W/m 2,1 km/h (1 Bft)
13.04.2015 21:00 10,8 C 6,7 C 62 % 1030,1 hPa 0,0 l/m 0 min 0 min 0 W/m 2,1 km/h (1 Bft)
13.04.2015 21:02 10,8 C 6,7 C 62 % 1030,1 hPa 0,0 l/m 0 min 0 min 0 W/m 2,1 km/h (1 Bft)
13.04.2015 21:04 10,7 C 6,7 C 63 % 1030,1 hPa 0,0 l/m 0 min 0 min 0 W/m 2,1 km/h (1 Bft)
13.04.2015 21:06 10,7 C 6,7 C 63 % 1030,1 hPa 0,0 l/m 0 min 0 min 0 W/m 2,1 km/h (1 Bft)
13.04.2015 21:08 10,6 C 6,7 C 63 % 1030,1 hPa 0,0 l/m 0 min 0 min 0 W/m 2,1 km/h (1 Bft)
13.04.2015 21:10 10,5 C 6,7 C 64 % 1030,1 hPa 0,0 l/m 0 min 0 min 0 W/m 2,1 km/h (1 Bft)
13.04.2015 21:12 10,4 C 6,7 C 64 % 1030,1 hPa 0,0 l/m 0 min 0 min 0 W/m 2,1 km/h (1 Bft)
13.04.2015 21:14 10,4 C 6,1 C 64 % 1030,1 hPa 0,0 l/m 0 min 0 min 0 W/m 4,2 km/h (1 Bft)
13.04.2015 21:16 10,3 C 6,1 C 64 % 1030,1 hPa 0,0 l/m 0 min 0 min 0 W/m 4,2 km/h (1 Bft)
13.04.2015 21:18 10,2 C 6,1 C 64 % 1030,1 hPa 0,0 l/m 0 min 0 min 0 W/m 4,2 km/h (1 Bft)
13.04.2015 21:20 10,2 C 6,1 C 64 % 1030,1 hPa 0,0 l/m 0 min 0 min 0 W/m 2,1 km/h (1 Bft)
13.04.2015 21:22 10,1 C 6,1 C 65 % 1030,2 hPa 0,0 l/m 0 min 0 min 0 W/m 2,1 km/h (1 Bft)
13.04.2015 21:24 10,0 C 6,1 C 65 % 1030,2 hPa 0,0 l/m 0 min 0 min 0 W/m 4,2 km/h (1 Bft)
13.04.2015 21:26 9,9 C 6,1 C 65 % 1030,4 hPa 0,0 l/m 0 min 0 min 0 W/m 2,1 km/h (1 Bft)
13.04.2015 21:28 9,9 C 6,1 C 66 % 1030,4 hPa 0,0 l/m 0 min 0 min 0 W/m 2,1 km/h (1 Bft)
13.04.2015 21:30 9,8 C 6,1 C 66 % 1030,3 hPa 0,0 l/m 0 min 0 min 0 W/m 2,1 km/h (1 Bft)
13.04.2015 21:32 9,7 C 6,1 C 66 % 1030,2 hPa 0,0 l/m 0 min 0 min 0 W/m 2,1 km/h (1 Bft)
13.04.2015 21:34 9,7 C 6,1 C 66 % 1030,2 hPa 0,0 l/m 0 min 0 min 0 W/m 0,0 km/h (0 Bft)
13.04.2015 21:36 9,6 C 6,1 C 66 % 1030,3 hPa 0,0 l/m 0 min 0 min 0 W/m 2,1 km/h (1 Bft)
13.04.2015 21:38 9,6 C 5,6 C 67 % 1030,3 hPa 0,0 l/m 0 min 0 min 0 W/m 2,1 km/h (1 Bft)
13.04.2015 21:40 9,5 C 5,6 C 67 % 1030,3 hPa 0,0 l/m 0 min 0 min 0 W/m 0,0 km/h (0 Bft)
13.04.2015 21:42 9,4 C 5,6 C 67 % 1030,3 hPa 0,0 l/m 0 min 0 min 0 W/m 0,0 km/h (0 Bft)
13.04.2015 21:44 9,4 C 5,6 C 67 % 1030,3 hPa 0,0 l/m 0 min 0 min 0 W/m 0,0 km/h (0 Bft)
13.04.2015 21:46 9,3 C 5,6 C 68 % 1030,2 hPa 0,0 l/m 0 min 0 min 0 W/m 0,0 km/h (0 Bft)
13.04.2015 21:48 9,2 C 5,6 C 68 % 1030,2 hPa 0,0 l/m 0 min 0 min 0 W/m 0,0 km/h (0 Bft)
13.04.2015 21:50 9,2 C 5,6 C 68 % 1030,2 hPa 0,0 l/m 0 min 0 min 0 W/m 0,0 km/h (0 Bft)
13.04.2015 21:52 9,1 C 5,6 C 68 % 1030,2 hPa 0,0 l/m 0 min 0 min 0 W/m 0,0 km/h (0 Bft)
13.04.2015 21:54 9,1 C 5,6 C 68 % 1030,2 hPa 0,0 l/m 0 min 0 min 0 W/m 0,0 km/h (0 Bft)
13.04.2015 21:56 9,0 C 5,6 C 68 % 1030,2 hPa 0,0 l/m 0 min 0 min 0 W/m 2,1 km/h (1 Bft)
13.04.2015 21:58 8,9 C 5,6 C 68 % 1030,2 hPa 0,0 l/m 0 min 0 min 0 W/m 0,0 km/h (0 Bft)
13.04.2015 22:00 8,9 C 5,6 C 69 % 1030,3 hPa 0,0 l/m 0 min 0 min 0 W/m 2,1 km/h (1 Bft)
13.04.2015 22:02 8,8 C 5,6 C 69 % 1030,3 hPa 0,0 l/m 0 min 0 min 0 W/m 2,1 km/h (1 Bft)
13.04.2015 22:04 8,8 C 5,6 C 69 % 1030,4 hPa 0,0 l/m 0 min 0 min 0 W/m 2,1 km/h (1 Bft)
13.04.2015 22:06 8,7 C 5,6 C 69 % 1030,4 hPa 0,0 l/m 0 min 0 min 0 W/m 2,1 km/h (1 Bft)
13.04.2015 22:08 8,7 C 5,6 C 69 % 1030,3 hPa 0,0 l/m 0 min 0 min 0 W/m 2,1 km/h (1 Bft)
13.04.2015 22:10 8,6 C 5,6 C 70 % 1030,4 hPa 0,0 l/m 0 min 0 min 0 W/m 2,1 km/h (1 Bft)
13.04.2015 22:12 8,6 C 5,6 C 69 % 1030,4 hPa 0,0 l/m 0 min 0 min 0 W/m 2,1 km/h (1 Bft)
13.04.2015 22:14 8,6 C 5,6 C 70 % 1030,4 hPa 0,0 l/m 0 min 0 min 0 W/m 4,2 km/h (1 Bft)
13.04.2015 22:16 8,5 C 5,6 C 70 % 1030,5 hPa 0,0 l/m 0 min 0 min 0 W/m 4,2 km/h (1 Bft)
13.04.2015 22:18 8,4 C 5,0 C 70 % 1030,6 hPa 0,0 l/m 0 min 0 min 0 W/m 4,2 km/h (1 Bft)
13.04.2015 22:20 8,4 C 5,0 C 70 % 1030,5 hPa 0,0 l/m 0 min 0 min 0 W/m 4,2 km/h (1 Bft)
13.04.2015 22:22 8,3 C 5,0 C 71 % 1030,5 hPa 0,0 l/m 0 min 0 min 0 W/m 2,1 km/h (1 Bft)
13.04.2015 22:24 8,3 C 5,0 C 71 % 1030,5 hPa 0,0 l/m 0 min 0 min 0 W/m 2,1 km/h (1 Bft)
13.04.2015 22:26 8,3 C 5,0 C 71 % 1030,5 hPa 0,0 l/m 0 min 0 min 0 W/m 2,1 km/h (1 Bft)
13.04.2015 22:28 8,2 C 5,0 C 71 % 1030,4 hPa 0,0 l/m 0 min 0 min 0 W/m 2,1 km/h (1 Bft)
13.04.2015 22:30 8,2 C 5,0 C 71 % 1030,3 hPa 0,0 l/m 0 min 0 min 0 W/m 2,1 km/h (1 Bft)
13.04.2015 22:32 8,1 C 5,0 C 71 % 1030,4 hPa 0,0 l/m 0 min 0 min 0 W/m 2,1 km/h (1 Bft)
13.04.2015 22:34 8,1 C 5,0 C 71 % 1030,3 hPa 0,0 l/m 0 min 0 min 0 W/m 2,1 km/h (1 Bft)
13.04.2015 22:36 8,1 C 5,0 C 72 % 1030,3 hPa 0,0 l/m 0 min 0 min 0 W/m 2,1 km/h (1 Bft)
13.04.2015 22:38 8,0 C 5,0 C 72 % 1030,3 hPa 0,0 l/m 0 min 0 min 0 W/m 2,1 km/h (1 Bft)
13.04.2015 22:40 7,9 C 5,0 C 72 % 1030,4 hPa 0,0 l/m 0 min 0 min 0 W/m 2,1 km/h (1 Bft)
13.04.2015 22:42 7,9 C 5,0 C 72 % 1030,4 hPa 0,0 l/m 0 min 0 min 0 W/m 2,1 km/h (1 Bft)
13.04.2015 22:44 7,9 C 5,0 C 73 % 1030,4 hPa 0,0 l/m 0 min 0 min 0 W/m 0,0 km/h (0 Bft)
13.04.2015 22:46 7,8 C 5,0 C 73 % 1030,3 hPa 0,0 l/m 0 min 0 min 0 W/m 0,0 km/h (0 Bft)
13.04.2015 22:48 7,8 C 5,0 C 73 % 1030,3 hPa 0,0 l/m 0 min 0 min 0 W/m 2,1 km/h (1 Bft)
13.04.2015 22:50 7,8 C 5,0 C 73 % 1030,3 hPa 0,0 l/m 0 min 0 min 0 W/m 2,1 km/h (1 Bft)
13.04.2015 22:52 7,7 C 5,0 C 73 % 1030,4 hPa 0,0 l/m 0 min 0 min 0 W/m 2,1 km/h (1 Bft)
13.04.2015 22:54 7,7 C 5,0 C 73 % 1030,3 hPa 0,0 l/m 0 min 0 min 0 W/m 2,1 km/h (1 Bft)
13.04.2015 22:56 7,7 C 5,0 C 73 % 1030,4 hPa 0,0 l/m 0 min 0 min 0 W/m 0,0 km/h (0 Bft)
13.04.2015 22:58 7,6 C 5,0 C 73 % 1030,4 hPa 0,0 l/m 0 min 0 min 0 W/m 0,0 km/h (0 Bft)
13.04.2015 23:00 7,6 C 5,0 C 73 % 1030,3 hPa 0,0 l/m 0 min 0 min 0 W/m 2,1 km/h (1 Bft)
13.04.2015 23:02 7,6 C 4,4 C 74 % 1030,3 hPa 0,0 l/m 0 min 0 min 0 W/m 2,1 km/h (1 Bft)
13.04.2015 23:04 7,5 C 4,4 C 74 % 1030,3 hPa 0,0 l/m 0 min 0 min 0 W/m 2,1 km/h (1 Bft)
13.04.2015 23:06 7,5 C 4,4 C 74 % 1030,3 hPa 0,0 l/m 0 min 0 min 0 W/m 2,1 km/h (1 Bft)
13.04.2015 23:08 7,4 C 4,4 C 74 % 1030,4 hPa 0,0 l/m 0 min 0 min 0 W/m 0,0 km/h (0 Bft)
13.04.2015 23:10 7,4 C 4,4 C 74 % 1030,4 hPa 0,0 l/m 0 min 0 min 0 W/m 0,0 km/h (0 Bft)
13.04.2015 23:12 7,4 C 4,4 C 74 % 1030,4 hPa 0,0 l/m 0 min 0 min 0 W/m 0,0 km/h (0 Bft)
13.04.2015 23:14 7,3 C 4,4 C 74 % 1030,3 hPa 0,0 l/m 0 min 0 min 0 W/m 0,0 km/h (0 Bft)
13.04.2015 23:16 7,3 C 4,4 C 74 % 1030,3 hPa 0,0 l/m 0 min 0 min 0 W/m 2,1 km/h (1 Bft)
13.04.2015 23:18 7,3 C 4,4 C 74 % 1030,3 hPa 0,0 l/m 0 min 0 min 0 W/m 2,1 km/h (1 Bft)
13.04.2015 23:20 7,2 C 4,4 C 74 % 1030,3 hPa 0,0 l/m 0 min 0 min 0 W/m 2,1 km/h (1 Bft)
13.04.2015 23:22 7,2 C 4,4 C 74 % 1030,3 hPa 0,0 l/m 0 min 0 min 0 W/m 2,1 km/h (1 Bft)
13.04.2015 23:24 7,2 C 4,4 C 75 % 1030,3 hPa 0,0 l/m 0 min 0 min 0 W/m 2,1 km/h (1 Bft)
13.04.2015 23:26 7,2 C 4,4 C 75 % 1030,3 hPa 0,0 l/m 0 min 0 min 0 W/m 2,1 km/h (1 Bft)
13.04.2015 23:28 7,2 C 4,4 C 76 % 1030,3 hPa 0,0 l/m 0 min 0 min 0 W/m 2,1 km/h (1 Bft)
13.04.2015 23:30 7,1 C 4,4 C 76 % 1030,3 hPa 0,0 l/m 0 min 0 min 0 W/m 2,1 km/h (1 Bft)
13.04.2015 23:32 7,1 C 4,4 C 76 % 1030,3 hPa 0,0 l/m 0 min 0 min 0 W/m 2,1 km/h (1 Bft)
13.04.2015 23:34 7,1 C 4,4 C 76 % 1030,3 hPa 0,0 l/m 0 min 0 min 0 W/m 2,1 km/h (1 Bft)
13.04.2015 23:36 7,0 C 4,4 C 76 % 1030,2 hPa 0,0 l/m 0 min 0 min 0 W/m 2,1 km/h (1 Bft)
13.04.2015 23:38 7,0 C 4,4 C 77 % 1030,2 hPa 0,0 l/m 0 min 0 min 0 W/m 2,1 km/h (1 Bft)
13.04.2015 23:40 6,9 C 4,4 C 77 % 1030,2 hPa 0,0 l/m 0 min 0 min 0 W/m 2,1 km/h (1 Bft)
13.04.2015 23:42 6,9 C 4,4 C 77 % 1030,1 hPa 0,0 l/m 0 min 0 min 0 W/m 2,1 km/h (1 Bft)
13.04.2015 23:44 6,9 C 4,4 C 77 % 1030,2 hPa 0,0 l/m 0 min 0 min 0 W/m 0,0 km/h (0 Bft)
13.04.2015 23:46 6,9 C 4,4 C 77 % 1030,1 hPa 0,0 l/m 0 min 0 min 0 W/m 2,1 km/h (1 Bft)
13.04.2015 23:48 6,9 C 4,4 C 78 % 1030,2 hPa 0,0 l/m 0 min 0 min 0 W/m 0,0 km/h (0 Bft)
13.04.2015 23:50 6,9 C 4,4 C 78 % 1030,2 hPa 0,0 l/m 0 min 0 min 0 W/m 2,1 km/h (1 Bft)
13.04.2015 23:52 6,8 C 4,4 C 79 % 1030,2 hPa 0,0 l/m 0 min 0 min 0 W/m 2,1 km/h (1 Bft)
13.04.2015 23:54 6,8 C 4,4 C 79 % 1030,2 hPa 0,0 l/m 0 min 0 min 0 W/m 2,1 km/h (1 Bft)
13.04.2015 23:56 6,8 C 4,4 C 80 % 1030,2 hPa 0,0 l/m 0 min 0 min 0 W/m 0,0 km/h (0 Bft)
13.04.2015 23:58 6,8 C 4,4 C 80 % 1030,2 hPa 0,0 l/m 0 min 0 min 0 W/m 2,1 km/h (1 Bft)
_ Min-Zeit 23:52 23:02 15:54 00:10 - - - - 21:34
Minimum _ 6,8 C 4,4 C 48 % 1023,5 hPa - - - - 0,0 km/h (0 Bft)
_ Max-Zeit 16:32 16:10 07:30 11:20 00:00 06:58 05:30 12:34 00:26
Maximum _ 14,8 C 22,8 C 87 % 1031,9 hPa 0,0 l/m 2 min 2 min 814 W/m 39,7 km/h
W-SW (6 Bft)
Durchschnitt _ 11,0 C 10,3 C 67 % 1029,3 hPa #0,0 l/m #11:02 h #18 min. 369 W/m 14,0 km/h (3 Bft)
© 2015 W. Hausmann